Wetterdaten: Donnerstag, 13.10.2022
Datum Zeit Temp. 2m Temp +5 cm Feuchte A. Luftdruck Regen Wind Richtung Richtung Sonnenschein UV Solar Taupunkt Windchill Windben
13.10.2022 00:00 7,1 C 5,0 C 93 % 1024,7 hPa 0,0 l/m 0,3 km/h (0 Bft) SW 236 0 min 0,0 UV-I 0 W/m 6,0 C 7,1 C 1,6 km/h (1 Bft)
13.10.2022 00:03 7,2 C 5,0 C 93 % 1024,6 hPa 0,0 l/m 0,1 km/h (0 Bft) SW 236 0 min 0,0 UV-I 0 W/m 6,1 C 7,2 C 1,6 km/h (1 Bft)
13.10.2022 00:06 7,3 C 5,6 C 94 % 1024,6 hPa 0,0 l/m 0,7 km/h (0 Bft) SW 236 0 min 0,0 UV-I 0 W/m 6,4 C 7,3 C 3,2 km/h (1 Bft)
13.10.2022 00:09 7,4 C 5,6 C 93 % 1024,5 hPa 0,0 l/m 1,8 km/h (1 Bft) SW 236 0 min 0,0 UV-I 0 W/m 6,3 C 7,4 C 4,8 km/h (1 Bft)
13.10.2022 00:12 7,4 C 5,6 C 93 % 1024,5 hPa 0,0 l/m 2,1 km/h (1 Bft) SW 236 0 min 0,0 UV-I 0 W/m 6,3 C 7,4 C 4,8 km/h (1 Bft)
13.10.2022 00:15 7,4 C 5,6 C 93 % 1024,5 hPa 0,0 l/m 2,2 km/h (1 Bft) SW 236 0 min 0,0 UV-I 0 W/m 6,3 C 7,4 C 3,2 km/h (1 Bft)
13.10.2022 00:18 7,4 C 5,6 C 93 % 1024,4 hPa 0,0 l/m 3,0 km/h (1 Bft) SW 236 0 min 0,0 UV-I 0 W/m 6,3 C 7,4 C 4,8 km/h (1 Bft)
13.10.2022 00:21 7,4 C 6,1 C 93 % 1024,3 hPa 0,0 l/m 3,7 km/h (1 Bft) SW 236 0 min 0,0 UV-I 0 W/m 6,3 C 7,4 C 4,8 km/h (1 Bft)
13.10.2022 00:24 7,3 C 6,1 C 93 % 1024,5 hPa 0,0 l/m 3,9 km/h (1 Bft) SW 236 0 min 0,0 UV-I 0 W/m 6,2 C 7,3 C 6,4 km/h (2 Bft)
13.10.2022 00:27 7,3 C 6,1 C 93 % 1024,4 hPa 0,0 l/m 3,2 km/h (1 Bft) SW 236 0 min 0,0 UV-I 0 W/m 6,2 C 7,3 C 4,8 km/h (1 Bft)
13.10.2022 00:30 7,3 C 6,1 C 93 % 1024,6 hPa 0,0 l/m 3,6 km/h (1 Bft) SW 236 0 min 0,0 UV-I 0 W/m 6,2 C 7,3 C 6,4 km/h (2 Bft)
13.10.2022 00:33 7,2 C 6,1 C 93 % 1024,5 hPa 0,0 l/m 3,6 km/h (1 Bft) SW 236 0 min 0,0 UV-I 0 W/m 6,1 C 7,2 C 4,8 km/h (1 Bft)
13.10.2022 00:36 7,2 C 6,1 C 93 % 1024,5 hPa 0,0 l/m 3,9 km/h (1 Bft) SW 236 0 min 0,0 UV-I 0 W/m 6,1 C 7,2 C 4,8 km/h (1 Bft)
13.10.2022 00:39 7,2 C 5,6 C 93 % 1024,4 hPa 0,0 l/m 3,9 km/h (1 Bft) SW 236 0 min 0,0 UV-I 0 W/m 6,1 C 7,2 C 4,8 km/h (1 Bft)
13.10.2022 00:42 7,3 C 5,6 C 93 % 1024,4 hPa 0,0 l/m 3,5 km/h (1 Bft) SW 236 0 min 0,0 UV-I 0 W/m 6,2 C 7,3 C 4,8 km/h (1 Bft)
13.10.2022 00:45 7,3 C 5,6 C 93 % 1024,4 hPa 0,0 l/m 3,9 km/h (1 Bft) SW 236 0 min 0,0 UV-I 0 W/m 6,2 C 7,3 C 4,8 km/h (1 Bft)
13.10.2022 00:48 7,3 C 5,6 C 93 % 1024,3 hPa 0,0 l/m 3,5 km/h (1 Bft) SW 236 0 min 0,0 UV-I 0 W/m 6,2 C 7,3 C 4,8 km/h (1 Bft)
13.10.2022 00:51 7,3 C 6,1 C 93 % 1024,3 hPa 0,0 l/m 3,5 km/h (1 Bft) SW 236 0 min 0,0 UV-I 0 W/m 6,2 C 7,3 C 4,8 km/h (1 Bft)
13.10.2022 00:54 7,3 C 5,6 C 93 % 1024,4 hPa 0,0 l/m 3,2 km/h (1 Bft) SW 236 0 min 0,0 UV-I 0 W/m 6,2 C 7,3 C 4,8 km/h (1 Bft)
13.10.2022 00:57 7,3 C 6,1 C 93 % 1024,4 hPa 0,0 l/m 3,3 km/h (1 Bft) SW 236 0 min 0,0 UV-I 0 W/m 6,2 C 7,3 C 4,8 km/h (1 Bft)
13.10.2022 01:00 7,3 C 5,6 C 93 % 1024,3 hPa 0,0 l/m 3,2 km/h (1 Bft) SW 236 0 min 0,0 UV-I 0 W/m 6,2 C 7,3 C 4,8 km/h (1 Bft)
13.10.2022 01:03 7,3 C 5,6 C 93 % 1024,2 hPa 0,0 l/m 1,1 km/h (1 Bft) SW 236 0 min 0,0 UV-I 0 W/m 6,2 C 7,3 C 3,2 km/h (1 Bft)
13.10.2022 01:06 7,3 C 5,0 C 93 % 1024,3 hPa 0,0 l/m 2,5 km/h (1 Bft) SW 236 0 min 0,0 UV-I 0 W/m 6,2 C 7,3 C 4,8 km/h (1 Bft)
13.10.2022 01:09 7,3 C 5,6 C 93 % 1024,2 hPa 0,0 l/m 1,8 km/h (1 Bft) SW 236 0 min 0,0 UV-I 0 W/m 6,2 C 7,3 C 3,2 km/h (1 Bft)
13.10.2022 01:12 7,4 C 5,6 C 93 % 1024,3 hPa 0,0 l/m 2,5 km/h (1 Bft) SW 236 0 min 0,0 UV-I 0 W/m 6,3 C 7,4 C 4,8 km/h (1 Bft)
13.10.2022 01:15 7,3 C 5,6 C 93 % 1024,3 hPa 0,0 l/m 3,0 km/h (1 Bft) SW 236 0 min 0,0 UV-I 0 W/m 6,2 C 7,3 C 4,8 km/h (1 Bft)
13.10.2022 01:18 7,3 C 5,6 C 93 % 1024,3 hPa 0,0 l/m 3,2 km/h (1 Bft) SW 235 0 min 0,0 UV-I 0 W/m 6,2 C 7,3 C 4,8 km/h (1 Bft)
13.10.2022 01:21 7,3 C 6,1 C 93 % 1024,2 hPa 0,0 l/m 3,4 km/h (1 Bft) SW 235 0 min 0,0 UV-I 0 W/m 6,2 C 7,3 C 4,8 km/h (1 Bft)
13.10.2022 01:24 7,3 C 6,1 C 93 % 1024,3 hPa 0,0 l/m 2,2 km/h (1 Bft) SW 235 0 min 0,0 UV-I 0 W/m 6,2 C 7,3 C 3,2 km/h (1 Bft)
13.10.2022 01:27 7,3 C 6,1 C 93 % 1024,3 hPa 0,0 l/m 2,7 km/h (1 Bft) SW 235 0 min 0,0 UV-I 0 W/m 6,2 C 7,3 C 3,2 km/h (1 Bft)
13.10.2022 01:30 7,4 C 6,1 C 94 % 1024,2 hPa 0,0 l/m 2,8 km/h (1 Bft) SW 235 0 min 0,0 UV-I 0 W/m 6,5 C 7,4 C 4,8 km/h (1 Bft)
13.10.2022 01:33 7,4 C 5,6 C 94 % 1024,2 hPa 0,0 l/m 2,3 km/h (1 Bft) SW 235 0 min 0,0 UV-I 0 W/m 6,5 C 7,4 C 3,2 km/h (1 Bft)
13.10.2022 01:36 7,4 C 5,6 C 93 % 1024,2 hPa 0,0 l/m 2,0 km/h (1 Bft) SW 235 0 min 0,0 UV-I 0 W/m 6,3 C 7,4 C 3,2 km/h (1 Bft)
13.10.2022 01:39 7,4 C 5,6 C 93 % 1024,1 hPa 0,0 l/m 2,2 km/h (1 Bft) SW 235 0 min 0,0 UV-I 0 W/m 6,3 C 7,4 C 3,2 km/h (1 Bft)
13.10.2022 01:42 7,3 C 5,0 C 93 % 1024,1 hPa 0,0 l/m 2,0 km/h (1 Bft) SW 236 0 min 0,0 UV-I 0 W/m 6,2 C 7,3 C 3,2 km/h (1 Bft)
13.10.2022 01:45 7,1 C 4,4 C 93 % 1024,1 hPa 0,0 l/m 2,2 km/h (1 Bft) SW 235 0 min 0,0 UV-I 0 W/m 6,0 C 7,1 C 3,2 km/h (1 Bft)
13.10.2022 01:48 7,1 C 4,4 C 93 % 1024,1 hPa 0,0 l/m 2,2 km/h (1 Bft) SW 235 0 min 0,0 UV-I 0 W/m 6,0 C 7,1 C 3,2 km/h (1 Bft)
13.10.2022 01:51 7,1 C 4,4 C 93 % 1024,1 hPa 0,0 l/m 3,0 km/h (1 Bft) SW 235 0 min 0,0 UV-I 0 W/m 6,0 C 7,1 C 4,8 km/h (1 Bft)
13.10.2022 01:54 7,0 C 4,4 C 93 % 1024,2 hPa 0,0 l/m 3,6 km/h (1 Bft) SW 235 0 min 0,0 UV-I 0 W/m 5,9 C 7,0 C 4,8 km/h (1 Bft)
13.10.2022 01:57 6,9 C 4,4 C 93 % 1024,1 hPa 0,0 l/m 3,8 km/h (1 Bft) SW 235 0 min 0,0 UV-I 0 W/m 5,8 C 6,9 C 4,8 km/h (1 Bft)
13.10.2022 02:00 6,9 C 5,0 C 94 % 1024,1 hPa 0,0 l/m 4,3 km/h (1 Bft) SW 236 0 min 0,0 UV-I 0 W/m 6,0 C 6,9 C 6,4 km/h (2 Bft)
13.10.2022 02:03 7,0 C 5,6 C 94 % 1024,1 hPa 0,0 l/m 4,5 km/h (1 Bft) SW 236 0 min 0,0 UV-I 0 W/m 6,1 C 7,0 C 6,4 km/h (2 Bft)
13.10.2022 02:06 7,1 C 5,6 C 94 % 1024,1 hPa 0,0 l/m 3,7 km/h (1 Bft) W-SW 237 0 min 0,0 UV-I 0 W/m 6,2 C 7,1 C 4,8 km/h (1 Bft)
13.10.2022 02:09 7,1 C 6,1 C 94 % 1024,1 hPa 0,0 l/m 3,9 km/h (1 Bft) SW 236 0 min 0,0 UV-I 0 W/m 6,2 C 7,1 C 4,8 km/h (1 Bft)
13.10.2022 02:12 7,1 C 6,1 C 94 % 1024,1 hPa 0,0 l/m 3,5 km/h (1 Bft) SW 236 0 min 0,0 UV-I 0 W/m 6,2 C 7,1 C 6,4 km/h (2 Bft)
13.10.2022 02:15 7,1 C 6,1 C 94 % 1024,1 hPa 0,0 l/m 2,9 km/h (1 Bft) SW 236 0 min 0,0 UV-I 0 W/m 6,2 C 7,1 C 4,8 km/h (1 Bft)
13.10.2022 02:18 7,1 C 6,1 C 94 % 1024,0 hPa 0,0 l/m 2,5 km/h (1 Bft) SW 236 0 min 0,0 UV-I 0 W/m 6,2 C 7,1 C 3,2 km/h (1 Bft)
13.10.2022 02:21 7,1 C 6,1 C 94 % 1024,0 hPa 0,0 l/m 2,0 km/h (1 Bft) SW 236 0 min 0,0 UV-I 0 W/m 6,2 C 7,1 C 4,8 km/h (1 Bft)
13.10.2022 02:24 7,1 C 6,1 C 94 % 1024,0 hPa 0,0 l/m 1,6 km/h (1 Bft) SW 236 0 min 0,0 UV-I 0 W/m 6,2 C 7,1 C 4,8 km/h (1 Bft)
13.10.2022 02:27 7,0 C 6,1 C 94 % 1024,0 hPa 0,0 l/m 0,2 km/h (0 Bft) SW 236 0 min 0,0 UV-I 0 W/m 6,1 C 7,0 C 1,6 km/h (1 Bft)
13.10.2022 02:30 6,9 C 6,1 C 93 % 1024,0 hPa 0,0 l/m 0,2 km/h (0 Bft) SW 236 0 min 0,0 UV-I 0 W/m 5,8 C 6,9 C 1,6 km/h (1 Bft)
13.10.2022 02:33 6,8 C 6,1 C 93 % 1023,9 hPa 0,0 l/m 0,5 km/h (0 Bft) SW 236 0 min 0,0 UV-I 0 W/m 5,7 C 6,8 C 1,6 km/h (1 Bft)
13.10.2022 02:36 6,9 C 6,1 C 94 % 1024,0 hPa 0,0 l/m 1,4 km/h (1 Bft) SW 236 0 min 0,0 UV-I 0 W/m 6,0 C 6,9 C 3,2 km/h (1 Bft)
13.10.2022 02:39 6,9 C 6,1 C 94 % 1024,0 hPa 0,0 l/m 1,3 km/h (1 Bft) SW 236 0 min 0,0 UV-I 0 W/m 6,0 C 6,9 C 1,6 km/h (1 Bft)
13.10.2022 02:42 6,9 C 6,1 C 94 % 1023,8 hPa 0,0 l/m 1,5 km/h (1 Bft) SW 236 0 min 0,0 UV-I 0 W/m 6,0 C 6,9 C 3,2 km/h (1 Bft)
13.10.2022 02:45 6,9 C 6,1 C 94 % 1024,0 hPa 0,0 l/m 1,6 km/h (1 Bft) SW 236 0 min 0,0 UV-I 0 W/m 6,0 C 6,9 C 3,2 km/h (1 Bft)
13.10.2022 02:48 6,9 C 6,1 C 94 % 1024,0 hPa 0,0 l/m 2,5 km/h (1 Bft) SW 236 0 min 0,0 UV-I 0 W/m 6,0 C 6,9 C 3,2 km/h (1 Bft)
13.10.2022 02:51 6,9 C 6,1 C 94 % 1024,0 hPa 0,0 l/m 2,2 km/h (1 Bft) SW 236 0 min 0,0 UV-I 0 W/m 6,0 C 6,9 C 3,2 km/h (1 Bft)
13.10.2022 02:54 6,9 C 6,1 C 94 % 1023,8 hPa 0,0 l/m 3,2 km/h (1 Bft) SW 234 0 min 0,0 UV-I 0 W/m 6,0 C 6,9 C 4,8 km/h (1 Bft)
13.10.2022 02:57 7,1 C 6,1 C 94 % 1023,8 hPa 0,0 l/m 3,2 km/h (1 Bft) SW 234 0 min 0,0 UV-I 0 W/m 6,2 C 7,1 C 4,8 km/h (1 Bft)
13.10.2022 03:00 7,1 C 6,1 C 94 % 1023,8 hPa 0,0 l/m 3,3 km/h (1 Bft) SW 234 0 min 0,0 UV-I 0 W/m 6,2 C 7,1 C 4,8 km/h (1 Bft)
13.10.2022 03:03 7,1 C 6,7 C 94 % 1023,8 hPa 0,0 l/m 2,8 km/h (1 Bft) SW 234 0 min 0,0 UV-I 0 W/m 6,2 C 7,1 C 4,8 km/h (1 Bft)
13.10.2022 03:06 7,2 C 6,7 C 94 % 1023,8 hPa 0,0 l/m 2,9 km/h (1 Bft) SW 234 0 min 0,0 UV-I 0 W/m 6,3 C 7,2 C 4,8 km/h (1 Bft)
13.10.2022 03:09 7,2 C 6,7 C 94 % 1023,8 hPa 0,0 l/m 2,7 km/h (1 Bft) SW 234 0 min 0,0 UV-I 0 W/m 6,3 C 7,2 C 4,8 km/h (1 Bft)
13.10.2022 03:12 7,2 C 6,1 C 94 % 1023,8 hPa 0,0 l/m 2,8 km/h (1 Bft) SW 234 0 min 0,0 UV-I 0 W/m 6,3 C 7,2 C 4,8 km/h (1 Bft)
13.10.2022 03:15 7,1 C 6,1 C 94 % 1023,7 hPa 0,0 l/m 2,4 km/h (1 Bft) SW 234 0 min 0,0 UV-I 0 W/m 6,2 C 7,1 C 4,8 km/h (1 Bft)
13.10.2022 03:18 7,1 C 6,1 C 94 % 1023,7 hPa 0,0 l/m 2,7 km/h (1 Bft) SW 234 0 min 0,0 UV-I 0 W/m 6,2 C 7,1 C 4,8 km/h (1 Bft)
13.10.2022 03:21 6,9 C 6,1 C 94 % 1023,7 hPa 0,0 l/m 2,2 km/h (1 Bft) SW 234 0 min 0,0 UV-I 0 W/m 6,0 C 6,9 C 4,8 km/h (1 Bft)
13.10.2022 03:24 6,6 C 5,6 C 94 % 1023,6 hPa 0,0 l/m 1,4 km/h (1 Bft) SW 234 0 min 0,0 UV-I 0 W/m 5,7 C 6,6 C 3,2 km/h (1 Bft)
13.10.2022 03:27 6,1 C 5,6 C 93 % 1023,7 hPa 0,0 l/m 1,9 km/h (1 Bft) SW 234 0 min 0,0 UV-I 0 W/m 5,1 C 6,1 C 3,2 km/h (1 Bft)
13.10.2022 03:30 6,4 C 5,6 C 94 % 1023,7 hPa 0,0 l/m 3,2 km/h (1 Bft) SW 234 0 min 0,0 UV-I 0 W/m 5,5 C 6,4 C 4,8 km/h (1 Bft)
13.10.2022 03:33 6,4 C 5,6 C 94 % 1023,7 hPa 0,0 l/m 1,4 km/h (1 Bft) SW 234 0 min 0,0 UV-I 0 W/m 5,5 C 6,4 C 3,2 km/h (1 Bft)
13.10.2022 03:36 5,9 C 5,6 C 93 % 1023,7 hPa 0,0 l/m 1,6 km/h (1 Bft) SW 234 0 min 0,0 UV-I 0 W/m 4,9 C 5,9 C 3,2 km/h (1 Bft)
13.10.2022 03:39 5,8 C 5,6 C 94 % 1023,6 hPa 0,0 l/m 0,5 km/h (0 Bft) SW 234 0 min 0,0 UV-I 0 W/m 4,9 C 5,8 C 3,2 km/h (1 Bft)
13.10.2022 03:42 5,8 C 5,6 C 94 % 1023,5 hPa 0,0 l/m 0,8 km/h (0 Bft) SW 234 0 min 0,0 UV-I 0 W/m 4,9 C 5,8 C 3,2 km/h (1 Bft)
13.10.2022 03:45 6,3 C 5,6 C 94 % 1023,6 hPa 0,0 l/m 1,6 km/h (1 Bft) SW 234 0 min 0,0 UV-I 0 W/m 5,4 C 6,3 C 3,2 km/h (1 Bft)
13.10.2022 03:48 5,7 C 5,0 C 93 % 1023,4 hPa 0,0 l/m 0,5 km/h (0 Bft) SW 234 0 min 0,0 UV-I 0 W/m 4,7 C 5,7 C 3,2 km/h (1 Bft)
13.10.2022 03:51 5,5 C 5,6 C 93 % 1023,4 hPa 0,0 l/m 0,0 km/h (0 Bft) SW 234 0 min 0,0 UV-I 0 W/m 4,5 C 5,5 C 0,0 km/h (0 Bft)
13.10.2022 03:54 5,3 C 5,6 C 94 % 1023,4 hPa 0,0 l/m 0,0 km/h (0 Bft) SW 234 0 min 0,0 UV-I 0 W/m 4,4 C 5,3 C 0,0 km/h (0 Bft)
13.10.2022 03:57 5,4 C 5,0 C 94 % 1023,4 hPa 0,0 l/m 0,0 km/h (0 Bft) SW 234 0 min 0,0 UV-I 0 W/m 4,5 C 5,4 C 0,0 km/h (0 Bft)
13.10.2022 04:00 5,5 C 5,0 C 94 % 1023,3 hPa 0,0 l/m 0,0 km/h (0 Bft) SW 234 0 min 0,0 UV-I 0 W/m 4,6 C 5,5 C 0,0 km/h (0 Bft)
13.10.2022 04:03 5,4 C 5,0 C 94 % 1023,3 hPa 0,0 l/m 0,0 km/h (0 Bft) SW 234 0 min 0,0 UV-I 0 W/m 4,5 C 5,4 C 0,0 km/h (0 Bft)
13.10.2022 04:06 5,2 C 5,0 C 94 % 1023,2 hPa 0,0 l/m 0,0 km/h (0 Bft) SW 234 0 min 0,0 UV-I 0 W/m 4,3 C 5,2 C 1,6 km/h (1 Bft)
13.10.2022 04:09 5,1 C 5,0 C 94 % 1023,1 hPa 0,0 l/m 0,5 km/h (0 Bft) SW 234 0 min 0,0 UV-I 0 W/m 4,2 C 5,1 C 1,6 km/h (1 Bft)
13.10.2022 04:12 5,1 C 5,0 C 94 % 1023,1 hPa 0,0 l/m 0,9 km/h (0 Bft) SW 234 0 min 0,0 UV-I 0 W/m 4,2 C 5,1 C 1,6 km/h (1 Bft)
13.10.2022 04:15 5,1 C 5,0 C 94 % 1023,2 hPa 0,0 l/m 0,8 km/h (0 Bft) SW 234 0 min 0,0 UV-I 0 W/m 4,2 C 5,1 C 1,6 km/h (1 Bft)
13.10.2022 04:18 5,1 C 5,0 C 94 % 1023,2 hPa 0,0 l/m 1,4 km/h (1 Bft) SW 234 0 min 0,0 UV-I 0 W/m 4,2 C 5,1 C 1,6 km/h (1 Bft)
13.10.2022 04:21 5,2 C 5,0 C 94 % 1023,2 hPa 0,0 l/m 2,9 km/h (1 Bft) NW 306 0 min 0,0 UV-I 0 W/m 4,3 C 5,2 C 4,8 km/h (1 Bft)
13.10.2022 04:24 5,2 C 5,0 C 94 % 1023,1 hPa 0,0 l/m 2,1 km/h (1 Bft) NW 306 0 min 0,0 UV-I 0 W/m 4,3 C 5,2 C 4,8 km/h (1 Bft)
13.10.2022 04:27 5,3 C 5,0 C 94 % 1023,2 hPa 0,0 l/m 1,4 km/h (1 Bft) NW 306 0 min 0,0 UV-I 0 W/m 4,4 C 5,3 C 3,2 km/h (1 Bft)
13.10.2022 04:30 5,3 C 5,0 C 94 % 1023,1 hPa 0,0 l/m 0,2 km/h (0 Bft) NW 306 0 min 0,0 UV-I 0 W/m 4,4 C 5,3 C 1,6 km/h (1 Bft)
13.10.2022 04:33 5,1 C 5,0 C 94 % 1023,1 hPa 0,0 l/m 0,0 km/h (0 Bft) NW 306 0 min 0,0 UV-I 0 W/m 4,2 C 5,1 C 0,0 km/h (0 Bft)
13.10.2022 04:36 5,1 C 5,0 C 94 % 1023,1 hPa 0,0 l/m 0,0 km/h (0 Bft) NW 306 0 min 0,0 UV-I 0 W/m 4,2 C 5,1 C 0,0 km/h (0 Bft)
13.10.2022 04:39 5,1 C 5,0 C 94 % 1023,1 hPa 0,0 l/m 0,0 km/h (0 Bft) NW 306 0 min 0,0 UV-I 0 W/m 4,2 C 5,1 C 0,0 km/h (0 Bft)
13.10.2022 04:42 5,3 C 5,0 C 94 % 1023,1 hPa 0,0 l/m 0,0 km/h (0 Bft) NW 306 0 min 0,0 UV-I 0 W/m 4,4 C 5,3 C 0,0 km/h (0 Bft)
13.10.2022 04:45 5,2 C 5,0 C 94 % 1023,0 hPa 0,0 l/m 0,0 km/h (0 Bft) NW 306 0 min 0,0 UV-I 0 W/m 4,3 C 5,2 C 0,0 km/h (0 Bft)
13.10.2022 04:48 5,1 C 5,0 C 94 % 1023,0 hPa 0,0 l/m 0,0 km/h (0 Bft) NW 306 0 min 0,0 UV-I 0 W/m 4,2 C 5,1 C 0,0 km/h (0 Bft)
13.10.2022 04:51 5,0 C 5,0 C 94 % 1023,0 hPa 0,0 l/m 0,0 km/h (0 Bft) NW 306 0 min 0,0 UV-I 0 W/m 4,1 C 5,0 C 0,0 km/h (0 Bft)
13.10.2022 04:54 5,1 C 5,0 C 94 % 1023,0 hPa 0,0 l/m 0,0 km/h (0 Bft) NW 306 0 min 0,0 UV-I 0 W/m 4,2 C 5,1 C 0,0 km/h (0 Bft)
13.10.2022 04:57 5,3 C 5,0 C 94 % 1023,1 hPa 0,0 l/m 0,0 km/h (0 Bft) NW 306 0 min 0,0 UV-I 0 W/m 4,4 C 5,3 C 0,0 km/h (0 Bft)
13.10.2022 05:00 5,3 C 5,0 C 94 % 1023,1 hPa 0,0 l/m 0,0 km/h (0 Bft) NW 306 0 min 0,0 UV-I 0 W/m 4,4 C 5,3 C 0,0 km/h (0 Bft)
13.10.2022 05:03 5,2 C 5,0 C 94 % 1023,0 hPa 0,0 l/m 0,0 km/h (0 Bft) NW 306 0 min 0,0 UV-I 0 W/m 4,3 C 5,2 C 0,0 km/h (0 Bft)
13.10.2022 05:06 5,3 C 5,0 C 94 % 1023,1 hPa 0,0 l/m 0,0 km/h (0 Bft) NW 306 0 min 0,0 UV-I 0 W/m 4,4 C 5,3 C 0,0 km/h (0 Bft)
13.10.2022 05:09 5,3 C 5,0 C 94 % 1023,0 hPa 0,0 l/m 0,0 km/h (0 Bft) NW 306 0 min 0,0 UV-I 0 W/m 4,4 C 5,3 C 0,0 km/h (0 Bft)
13.10.2022 05:12 5,3 C 5,0 C 94 % 1023,0 hPa 0,0 l/m 0,0 km/h (0 Bft) NW 306 0 min 0,0 UV-I 0 W/m 4,4 C 5,3 C 0,0 km/h (0 Bft)
13.10.2022 05:15 5,3 C 5,0 C 94 % 1023,0 hPa 0,0 l/m 0,0 km/h (0 Bft) NW 306 0 min 0,0 UV-I 0 W/m 4,4 C 5,3 C 0,0 km/h (0 Bft)
13.10.2022 05:18 5,3 C 5,0 C 94 % 1022,9 hPa 0,0 l/m 0,0 km/h (0 Bft) NW 306 0 min 0,0 UV-I 0 W/m 4,4 C 5,3 C 0,0 km/h (0 Bft)
13.10.2022 05:21 5,3 C 5,0 C 94 % 1022,8 hPa 0,0 l/m 0,0 km/h (0 Bft) NW 306 0 min 0,0 UV-I 0 W/m 4,4 C 5,3 C 0,0 km/h (0 Bft)
13.10.2022 05:24 5,6 C 5,0 C 94 % 1022,7 hPa 0,0 l/m 0,1 km/h (0 Bft) NW 306 0 min 0,0 UV-I 0 W/m 4,7 C 5,6 C 1,6 km/h (1 Bft)
13.10.2022 05:27 5,6 C 5,0 C 94 % 1022,7 hPa 0,0 l/m 1,1 km/h (1 Bft) NW 306 0 min 0,0 UV-I 0 W/m 4,7 C 5,6 C 3,2 km/h (1 Bft)
13.10.2022 05:30 5,5 C 5,0 C 94 % 1022,6 hPa 0,0 l/m 0,9 km/h (0 Bft) NW 306 0 min 0,0 UV-I 0 W/m 4,6 C 5,5 C 1,6 km/h (1 Bft)
13.10.2022 05:33 5,7 C 5,0 C 94 % 1022,5 hPa 0,0 l/m 0,6 km/h (0 Bft) NW 306 0 min 0,0 UV-I 0 W/m 4,8 C 5,7 C 1,6 km/h (1 Bft)
13.10.2022 05:36 6,4 C 5,0 C 95 % 1022,4 hPa 0,0 l/m 0,8 km/h (0 Bft) NW 306 0 min 0,0 UV-I 0 W/m 5,7 C 6,4 C 3,2 km/h (1 Bft)
13.10.2022 05:39 6,6 C 5,6 C 95 % 1022,4 hPa 0,0 l/m 0,1 km/h (0 Bft) NW 306 0 min 0,0 UV-I 0 W/m 5,9 C 6,6 C 1,6 km/h (1 Bft)
13.10.2022 05:42 6,1 C 5,0 C 94 % 1022,5 hPa 0,0 l/m 1,8 km/h (1 Bft) NW 306 0 min 0,0 UV-I 0 W/m 5,2 C 6,1 C 3,2 km/h (1 Bft)
13.10.2022 05:45 5,7 C 5,0 C 94 % 1022,4 hPa 0,0 l/m 2,6 km/h (1 Bft) NW 306 0 min 0,0 UV-I 0 W/m 4,8 C 5,7 C 4,8 km/h (1 Bft)
13.10.2022 05:48 5,4 C 5,0 C 94 % 1022,4 hPa 0,0 l/m 2,5 km/h (1 Bft) NW 307 0 min 0,0 UV-I 0 W/m 4,5 C 5,4 C 4,8 km/h (1 Bft)
13.10.2022 05:51 5,4 C 5,0 C 94 % 1022,3 hPa 0,0 l/m 4,0 km/h (1 Bft) N-NW 348 0 min 0,0 UV-I 0 W/m 4,5 C 5,4 C 4,8 km/h (1 Bft)
13.10.2022 05:54 5,6 C 5,0 C 94 % 1022,2 hPa 0,0 l/m 4,4 km/h (1 Bft) N-NW 348 0 min 0,0 UV-I 0 W/m 4,7 C 5,6 C 6,4 km/h (2 Bft)
13.10.2022 05:57 5,5 C 5,0 C 94 % 1022,2 hPa 0,0 l/m 5,9 km/h (2 Bft) N-NW 346 0 min 0,0 UV-I 0 W/m 4,6 C 5,5 C 8,0 km/h (2 Bft)
13.10.2022 06:00 5,5 C 5,0 C 94 % 1022,2 hPa 0,0 l/m 5,4 km/h (1 Bft) N-NW 328 0 min 0,0 UV-I 0 W/m 4,6 C 5,5 C 8,0 km/h (2 Bft)
13.10.2022 06:03 5,5 C 5,0 C 94 % 1022,3 hPa 0,0 l/m 3,4 km/h (1 Bft) N-NW 333 0 min 0,0 UV-I 0 W/m 4,6 C 5,5 C 4,8 km/h (1 Bft)
13.10.2022 06:06 5,6 C 5,0 C 94 % 1022,3 hPa 0,0 l/m 2,7 km/h (1 Bft) N-NW 333 0 min 0,0 UV-I 0 W/m 4,7 C 5,6 C 3,2 km/h (1 Bft)
13.10.2022 06:09 5,6 C 5,0 C 94 % 1022,2 hPa 0,0 l/m 2,1 km/h (1 Bft) N-NW 333 0 min 0,0 UV-I 0 W/m 4,7 C 5,6 C 4,8 km/h (1 Bft)
13.10.2022 06:12 5,6 C 5,0 C 94 % 1022,1 hPa 0,0 l/m 2,9 km/h (1 Bft) N-NW 333 0 min 0,0 UV-I 0 W/m 4,7 C 5,6 C 4,8 km/h (1 Bft)
13.10.2022 06:15 5,6 C 5,0 C 94 % 1022,1 hPa 0,0 l/m 1,9 km/h (1 Bft) N-NW 333 0 min 0,0 UV-I 0 W/m 4,7 C 5,6 C 3,2 km/h (1 Bft)
13.10.2022 06:18 5,6 C 5,0 C 94 % 1022,1 hPa 0,0 l/m 2,6 km/h (1 Bft) N-NW 333 0 min 0,0 UV-I 0 W/m 4,7 C 5,6 C 4,8 km/h (1 Bft)
13.10.2022 06:21 5,6 C 5,0 C 94 % 1022,2 hPa 0,0 l/m 2,2 km/h (1 Bft) N-NW 333 0 min 0,0 UV-I 0 W/m 4,7 C 5,6 C 4,8 km/h (1 Bft)
13.10.2022 06:24 5,6 C 5,0 C 94 % 1022,2 hPa 0,0 l/m 1,4 km/h (1 Bft) N-NW 333 0 min 0,0 UV-I 0 W/m 4,7 C 5,6 C 3,2 km/h (1 Bft)
13.10.2022 06:27 5,6 C 5,0 C 94 % 1022,3 hPa 0,0 l/m 0,6 km/h (0 Bft) N-NW 333 0 min 0,0 UV-I 0 W/m 4,7 C 5,6 C 1,6 km/h (1 Bft)
13.10.2022 06:30 5,5 C 5,0 C 94 % 1022,3 hPa 0,0 l/m 0,1 km/h (0 Bft) N-NW 333 0 min 0,0 UV-I 0 W/m 4,6 C 5,5 C 1,6 km/h (1 Bft)
13.10.2022 06:33 5,4 C 4,4 C 94 % 1022,3 hPa 0,0 l/m 0,0 km/h (0 Bft) N-NW 333 0 min 0,0 UV-I 0 W/m 4,5 C 5,4 C 0,0 km/h (0 Bft)
13.10.2022 06:36 5,1 C 4,4 C 94 % 1022,1 hPa 0,0 l/m 0,4 km/h (0 Bft) N-NW 333 0 min 0,0 UV-I 0 W/m 4,2 C 5,1 C 1,6 km/h (1 Bft)
13.10.2022 06:39 5,1 C 4,4 C 94 % 1022,2 hPa 0,0 l/m 0,3 km/h (0 Bft) N-NW 333 0 min 0,0 UV-I 0 W/m 4,2 C 5,1 C 1,6 km/h (1 Bft)
13.10.2022 06:42 5,1 C 4,4 C 94 % 1022,2 hPa 0,0 l/m 0,0 km/h (0 Bft) N-NW 333 0 min 0,0 UV-I 0 W/m 4,2 C 5,1 C 0,0 km/h (0 Bft)
13.10.2022 06:45 5,1 C 4,4 C 94 % 1022,2 hPa 0,0 l/m 0,0 km/h (0 Bft) N-NW 333 0 min 0,0 UV-I 0 W/m 4,2 C 5,1 C 0,0 km/h (0 Bft)
13.10.2022 06:48 5,1 C 4,4 C 94 % 1022,3 hPa 0,0 l/m 0,7 km/h (0 Bft) N-NW 333 0 min 0,0 UV-I 0 W/m 4,2 C 5,1 C 3,2 km/h (1 Bft)
13.10.2022 06:51 5,1 C 4,4 C 94 % 1022,2 hPa 0,0 l/m 0,4 km/h (0 Bft) N-NW 333 0 min 0,0 UV-I 0 W/m 4,2 C 5,1 C 1,6 km/h (1 Bft)
13.10.2022 06:54 5,1 C 4,4 C 94 % 1022,1 hPa 0,0 l/m 1,2 km/h (1 Bft) N-NW 333 0 min 0,0 UV-I 0 W/m 4,2 C 5,1 C 3,2 km/h (1 Bft)
13.10.2022 06:57 5,2 C 4,4 C 94 % 1022,1 hPa 0,0 l/m 0,6 km/h (0 Bft) N-NW 333 0 min 0,0 UV-I 0 W/m 4,3 C 5,2 C 1,6 km/h (1 Bft)
13.10.2022 07:00 5,2 C 4,4 C 94 % 1022,1 hPa 0,0 l/m 0,0 km/h (0 Bft) N-NW 333 0 min 0,0 UV-I 0 W/m 4,3 C 5,2 C 0,0 km/h (0 Bft)
13.10.2022 07:01 5,2 C 4,4 C 94 % 1022,1 hPa 0,0 l/m 0,0 km/h (0 Bft) N 0 0 min 0,0 UV-I 0 W/m 4,3 C 5,2 C 0,0 km/h (0 Bft)
13.10.2022 07:03 5,2 C 4,4 C 94 % 1022,1 hPa 0,0 l/m 0,0 km/h (0 Bft) N-NW 333 0 min 0,0 UV-I 0 W/m 4,3 C 5,2 C 0,0 km/h (0 Bft)
13.10.2022 07:06 5,1 C 4,4 C 94 % 1022,0 hPa 0,0 l/m 0,0 km/h (0 Bft) N-NW 333 0 min 0,0 UV-I 0 W/m 4,2 C 5,1 C 0,0 km/h (0 Bft)
13.10.2022 07:09 5,1 C 4,4 C 94 % 1022,0 hPa 0,0 l/m 0,1 km/h (0 Bft) N-NW 333 0 min 0,0 UV-I 0 W/m 4,2 C 5,1 C 1,6 km/h (1 Bft)
13.10.2022 07:12 4,9 C 4,4 C 94 % 1022,0 hPa 0,0 l/m 0,0 km/h (0 Bft) N-NW 333 0 min 0,0 UV-I 0 W/m 4,0 C 4,9 C 0,0 km/h (0 Bft)
13.10.2022 07:15 4,9 C 4,4 C 94 % 1022,0 hPa 0,0 l/m 0,0 km/h (0 Bft) N-NW 333 0 min 0,0 UV-I 0 W/m 4,0 C 4,9 C 0,0 km/h (0 Bft)
13.10.2022 07:18 4,9 C 4,4 C 94 % 1021,9 hPa 0,0 l/m 0,0 km/h (0 Bft) N-NW 333 0 min 0,0 UV-I 0 W/m 4,0 C 4,9 C 0,0 km/h (0 Bft)
13.10.2022 07:21 4,8 C 4,4 C 94 % 1021,9 hPa 0,0 l/m 0,0 km/h (0 Bft) N-NW 333 0 min 0,0 UV-I 0 W/m 3,9 C 4,8 C 0,0 km/h (0 Bft)
13.10.2022 07:24 4,7 C 4,4 C 94 % 1021,8 hPa 0,0 l/m 0,0 km/h (0 Bft) N-NW 333 0 min 0,0 UV-I 0 W/m 3,8 C 4,7 C 0,0 km/h (0 Bft)
13.10.2022 07:27 4,7 C 3,9 C 94 % 1021,8 hPa 0,0 l/m 0,0 km/h (0 Bft) N-NW 333 0 min 0,0 UV-I 0 W/m 3,8 C 4,7 C 0,0 km/h (0 Bft)
13.10.2022 07:30 4,8 C 4,4 C 94 % 1021,8 hPa 0,0 l/m 0,0 km/h (0 Bft) N-NW 333 0 min 0,0 UV-I 0 W/m 3,9 C 4,8 C 0,0 km/h (0 Bft)
13.10.2022 07:33 4,9 C 3,9 C 94 % 1021,8 hPa 0,0 l/m 0,1 km/h (0 Bft) N-NW 333 0 min 0,0 UV-I 0 W/m 4,0 C 4,9 C 1,6 km/h (1 Bft)
13.10.2022 07:36 5,0 C 3,9 C 94 % 1021,8 hPa 0,0 l/m 1,9 km/h (1 Bft) N-NW 333 0 min 0,0 UV-I 0 W/m 4,1 C 5,0 C 3,2 km/h (1 Bft)
13.10.2022 07:39 5,0 C 4,4 C 94 % 1021,8 hPa 0,0 l/m 0,2 km/h (0 Bft) N-NW 333 0 min 0,0 UV-I 0 W/m 4,1 C 5,0 C 1,6 km/h (1 Bft)
13.10.2022 07:42 4,8 C 3,9 C 94 % 1021,8 hPa 0,0 l/m 0,0 km/h (0 Bft) N-NW 333 0 min 0,0 UV-I 0 W/m 3,9 C 4,8 C 0,0 km/h (0 Bft)
13.10.2022 07:45 4,7 C 4,4 C 94 % 1021,7 hPa 0,0 l/m 0,0 km/h (0 Bft) N-NW 333 0 min 0,0 UV-I 0 W/m 3,8 C 4,7 C 0,0 km/h (0 Bft)
13.10.2022 07:48 4,7 C 3,9 C 94 % 1022,4 hPa 0,0 l/m 0,0 km/h (0 Bft) N-NW 333 0 min 0,0 UV-I 0 W/m 3,8 C 4,7 C 0,0 km/h (0 Bft)
13.10.2022 07:51 4,7 C 4,4 C 94 % 1021,8 hPa 0,0 l/m 0,0 km/h (0 Bft) N-NW 333 0 min 0,0 UV-I 0 W/m 3,8 C 4,7 C 0,0 km/h (0 Bft)
13.10.2022 07:54 4,6 C 4,4 C 94 % 1021,7 hPa 0,0 l/m 0,0 km/h (0 Bft) N-NW 333 0 min 0,0 UV-I 0 W/m 3,7 C 4,6 C 0,0 km/h (0 Bft)
13.10.2022 07:57 4,6 C 4,4 C 94 % 1021,8 hPa 0,0 l/m 0,0 km/h (0 Bft) N-NW 333 0 min 0,0 UV-I 0 W/m 3,7 C 4,6 C 0,0 km/h (0 Bft)
13.10.2022 08:00 4,6 C 4,4 C 94 % 1021,8 hPa 0,0 l/m 0,0 km/h (0 Bft) N-NW 333 0 min 0,0 UV-I 0 W/m 3,7 C 4,6 C 0,0 km/h (0 Bft)
13.10.2022 08:03 4,7 C 4,4 C 94 % 1021,6 hPa 0,0 l/m 0,0 km/h (0 Bft) N-NW 333 0 min 0,0 UV-I 2 W/m 3,8 C 4,7 C 0,0 km/h (0 Bft)
13.10.2022 08:06 4,9 C 4,4 C 95 % 1021,8 hPa 0,0 l/m 0,0 km/h (0 Bft) N-NW 333 0 min 0,0 UV-I 6 W/m 4,2 C 4,9 C 0,0 km/h (0 Bft)
13.10.2022 08:09 5,0 C 4,4 C 95 % 1021,8 hPa 0,0 l/m 0,8 km/h (0 Bft) N-NW 333 0 min 0,0 UV-I 11 W/m 4,3 C 5,0 C 1,6 km/h (1 Bft)
13.10.2022 08:12 4,9 C 5,0 C 95 % 1021,8 hPa 0,0 l/m 0,6 km/h (0 Bft) N-NW 333 0 min 0,0 UV-I 13 W/m 4,2 C 4,9 C 3,2 km/h (1 Bft)
13.10.2022 08:15 4,8 C 5,0 C 94 % 1021,7 hPa 0,0 l/m 1,7 km/h (1 Bft) N-NW 333 0 min 0,0 UV-I 15 W/m 3,9 C 4,8 C 3,2 km/h (1 Bft)
13.10.2022 08:18 4,9 C 5,0 C 94 % 1021,7 hPa 0,0 l/m 0,4 km/h (0 Bft) N-NW 333 0 min 0,0 UV-I 16 W/m 4,0 C 4,9 C 1,6 km/h (1 Bft)
13.10.2022 08:21 5,0 C 5,0 C 94 % 1021,7 hPa 0,0 l/m 0,3 km/h (0 Bft) N-NW 333 0 min 0,0 UV-I 16 W/m 4,1 C 5,0 C 1,6 km/h (1 Bft)
13.10.2022 08:24 4,9 C 5,0 C 95 % 1021,7 hPa 0,0 l/m 0,0 km/h (0 Bft) N-NW 333 0 min 0,0 UV-I 16 W/m 4,2 C 4,9 C 0,0 km/h (0 Bft)
13.10.2022 08:27 4,8 C 4,4 C 94 % 1021,7 hPa 0,0 l/m 0,1 km/h (0 Bft) N-NW 333 0 min 0,0 UV-I 16 W/m 3,9 C 4,8 C 1,6 km/h (1 Bft)
13.10.2022 08:30 4,8 C 4,4 C 94 % 1021,7 hPa 0,0 l/m 0,0 km/h (0 Bft) N-NW 333 0 min 0,0 UV-I 18 W/m 3,9 C 4,8 C 0,0 km/h (0 Bft)
13.10.2022 08:33 4,8 C 5,0 C 94 % 1021,7 hPa 0,0 l/m 0,0 km/h (0 Bft) N-NW 333 0 min 0,0 UV-I 20 W/m 3,9 C 4,8 C 0,0 km/h (0 Bft)
13.10.2022 08:36 4,8 C 5,0 C 95 % 1021,7 hPa 0,0 l/m 0,0 km/h (0 Bft) N-NW 333 0 min 0,0 UV-I 25 W/m 4,1 C 4,8 C 0,0 km/h (0 Bft)
13.10.2022 08:39 4,9 C 5,0 C 95 % 1021,6 hPa 0,0 l/m 0,0 km/h (0 Bft) N-NW 333 0 min 0,0 UV-I 30 W/m 4,2 C 4,9 C 0,0 km/h (0 Bft)
13.10.2022 08:42 4,9 C 5,0 C 95 % 1021,6 hPa 0,0 l/m 0,0 km/h (0 Bft) N-NW 333 0 min 0,0 UV-I 31 W/m 4,2 C 4,9 C 0,0 km/h (0 Bft)
13.10.2022 08:45 5,1 C 5,0 C 95 % 1021,7 hPa 0,0 l/m 0,0 km/h (0 Bft) N-NW 333 0 min 0,0 UV-I 29 W/m 4,4 C 5,1 C 0,0 km/h (0 Bft)
13.10.2022 08:48 5,2 C 5,0 C 95 % 1021,7 hPa 0,0 l/m 0,1 km/h (0 Bft) N-NW 333 0 min 0,0 UV-I 26 W/m 4,5 C 5,2 C 1,6 km/h (1 Bft)
13.10.2022 08:51 5,2 C 5,0 C 94 % 1021,6 hPa 0,0 l/m 0,0 km/h (0 Bft) N-NW 333 0 min 0,0 UV-I 23 W/m 4,3 C 5,2 C 0,0 km/h (0 Bft)
13.10.2022 08:54 5,3 C 5,6 C 95 % 1021,6 hPa 0,0 l/m 0,0 km/h (0 Bft) N-NW 333 0 min 0,0 UV-I 23 W/m 4,6 C 5,3 C 0,0 km/h (0 Bft)
13.10.2022 08:57 5,3 C 5,6 C 95 % 1021,7 hPa 0,0 l/m 0,0 km/h (0 Bft) N-NW 333 0 min 0,0 UV-I 21 W/m 4,6 C 5,3 C 0,0 km/h (0 Bft)
13.10.2022 09:00 5,4 C 5,6 C 95 % 1021,7 hPa 0,0 l/m 0,0 km/h (0 Bft) N-NW 333 0 min 0,0 UV-I 21 W/m 4,7 C 5,4 C 0,0 km/h (0 Bft)
13.10.2022 09:03 5,3 C 6,1 C 95 % 1021,7 hPa 0,0 l/m 0,0 km/h (0 Bft) N-NW 333 0 min 0,0 UV-I 22 W/m 4,6 C 5,3 C 0,0 km/h (0 Bft)
13.10.2022 09:06 5,4 C 6,1 C 95 % 1021,7 hPa 0,0 l/m 0,0 km/h (0 Bft) N-NW 333 0 min 0,0 UV-I 25 W/m 4,7 C 5,4 C 0,0 km/h (0 Bft)
13.10.2022 09:09 5,4 C 6,1 C 95 % 1021,7 hPa 0,0 l/m 0,0 km/h (0 Bft) N-NW 333 0 min 0,0 UV-I 27 W/m 4,7 C 5,4 C 0,0 km/h (0 Bft)
13.10.2022 09:12 5,6 C 6,7 C 95 % 1021,7 hPa 0,0 l/m 0,0 km/h (0 Bft) N-NW 333 0 min 0,0 UV-I 34 W/m 4,9 C 5,6 C 0,0 km/h (0 Bft)
13.10.2022 09:15 5,7 C 6,7 C 95 % 1021,5 hPa 0,0 l/m 0,0 km/h (0 Bft) N-NW 333 0 min 0,0 UV-I 43 W/m 5,0 C 5,7 C 0,0 km/h (0 Bft)
13.10.2022 09:18 5,8 C 6,7 C 95 % 1021,7 hPa 0,0 l/m 0,0 km/h (0 Bft) N-NW 333 0 min 0,0 UV-I 54 W/m 5,1 C 5,8 C 0,0 km/h (0 Bft)
13.10.2022 09:21 5,9 C 7,2 C 95 % 1021,5 hPa 0,0 l/m 0,1 km/h (0 Bft) N-NW 333 0 min 0,0 UV-I 64 W/m 5,2 C 5,9 C 1,6 km/h (1 Bft)
13.10.2022 09:24 6,1 C 7,8 C 95 % 1021,5 hPa 0,0 l/m 0,6 km/h (0 Bft) N-NW 333 0 min 0,0 UV-I 72 W/m 5,4 C 6,1 C 1,6 km/h (1 Bft)
13.10.2022 09:27 6,3 C 7,8 C 95 % 1021,6 hPa 0,0 l/m 1,6 km/h (1 Bft) N-NW 333 0 min 0,0 UV-I 82 W/m 5,6 C 6,3 C 4,8 km/h (1 Bft)
13.10.2022 09:30 6,7 C 7,2 C 95 % 1021,6 hPa 0,0 l/m 1,3 km/h (1 Bft) N-NW 333 0 min 0,0 UV-I 87 W/m 6,0 C 6,7 C 3,2 km/h (1 Bft)
13.10.2022 09:33 6,6 C 7,2 C 95 % 1021,5 hPa 0,0 l/m 0,0 km/h (0 Bft) N-NW 333 0 min 0,0 UV-I 85 W/m 5,9 C 6,6 C 0,0 km/h (0 Bft)
13.10.2022 09:36 6,7 C 7,2 C 95 % 1021,5 hPa 0,0 l/m 0,0 km/h (0 Bft) N-NW 333 0 min 0,0 UV-I 81 W/m 6,0 C 6,7 C 0,0 km/h (0 Bft)
13.10.2022 09:39 6,6 C 7,2 C 95 % 1021,6 hPa 0,0 l/m 0,1 km/h (0 Bft) N-NW 333 0 min 0,0 UV-I 73 W/m 5,9 C 6,6 C 1,6 km/h (1 Bft)
13.10.2022 09:42 6,5 C 7,2 C 95 % 1021,7 hPa 0,0 l/m 0,0 km/h (0 Bft) N-NW 333 0 min 0,0 UV-I 71 W/m 5,8 C 6,5 C 0,0 km/h (0 Bft)
13.10.2022 09:45 6,6 C 7,8 C 95 % 1021,6 hPa 0,0 l/m 0,0 km/h (0 Bft) N-NW 333 0 min 0,0 UV-I 75 W/m 5,9 C 6,6 C 0,0 km/h (0 Bft)
13.10.2022 09:48 6,8 C 7,8 C 95 % 1021,6 hPa 0,0 l/m 0,1 km/h (0 Bft) N-NW 333 0 min 0,0 UV-I 83 W/m 6,1 C 6,8 C 1,6 km/h (1 Bft)
13.10.2022 09:51 6,9 C 7,8 C 95 % 1021,5 hPa 0,0 l/m 0,1 km/h (0 Bft) N-NW 333 0 min 0,0 UV-I 82 W/m 6,2 C 6,9 C 1,6 km/h (1 Bft)
13.10.2022 09:54 6,8 C 7,8 C 95 % 1021,6 hPa 0,0 l/m 0,9 km/h (0 Bft) N-NW 333 0 min 0,0 UV-I 72 W/m 6,1 C 6,8 C 3,2 km/h (1 Bft)
13.10.2022 09:57 6,8 C 7,8 C 95 % 1021,5 hPa 0,0 l/m 0,0 km/h (0 Bft) N-NW 333 0 min 0,0 UV-I 69 W/m 6,1 C 6,8 C 0,0 km/h (0 Bft)
13.10.2022 10:00 6,9 C 7,8 C 95 % 1021,5 hPa 0,0 l/m 0,9 km/h (0 Bft) N-NW 333 0 min 0,0 UV-I 70 W/m 6,2 C 6,9 C 3,2 km/h (1 Bft)
13.10.2022 10:03 7,1 C 7,8 C 95 % 1021,6 hPa 0,0 l/m 2,0 km/h (1 Bft) N-NW 333 0 min 0,3 UV-I 76 W/m 6,4 C 7,1 C 3,2 km/h (1 Bft)
13.10.2022 10:06 7,3 C 7,8 C 95 % 1021,6 hPa 0,0 l/m 2,2 km/h (1 Bft) N-NW 333 0 min 0,5 UV-I 82 W/m 6,6 C 7,3 C 3,2 km/h (1 Bft)
13.10.2022 10:09 7,3 C 7,8 C 95 % 1021,6 hPa 0,0 l/m 1,2 km/h (1 Bft) N-NW 333 0 min 0,5 UV-I 87 W/m 6,6 C 7,3 C 3,2 km/h (1 Bft)
13.10.2022 10:12 7,4 C 7,8 C 95 % 1021,5 hPa 0,0 l/m 0,0 km/h (0 Bft) N-NW 333 0 min 0,5 UV-I 92 W/m 6,7 C 7,4 C 1,6 km/h (1 Bft)
13.10.2022 10:15 7,6 C 8,3 C 95 % 1021,5 hPa 0,0 l/m 0,9 km/h (0 Bft) N-NW 333 0 min 0,5 UV-I 96 W/m 6,9 C 7,6 C 3,2 km/h (1 Bft)
13.10.2022 10:18 7,9 C 8,3 C 95 % 1021,4 hPa 0,0 l/m 2,0 km/h (1 Bft) N-NW 333 0 min 0,5 UV-I 102 W/m 7,1 C 7,9 C 3,2 km/h (1 Bft)
13.10.2022 10:21 8,1 C 8,9 C 95 % 1021,4 hPa 0,0 l/m 1,3 km/h (1 Bft) N-NW 333 0 min 0,6 UV-I 112 W/m 7,3 C 8,1 C 3,2 km/h (1 Bft)
13.10.2022 10:24 8,2 C 8,9 C 95 % 1021,3 hPa 0,0 l/m 0,0 km/h (0 Bft) N-NW 333 0 min 0,6 UV-I 106 W/m 7,4 C 8,2 C 1,6 km/h (1 Bft)
13.10.2022 10:27 8,3 C 8,9 C 95 % 1021,3 hPa 0,0 l/m 0,1 km/h (0 Bft) N-NW 333 0 min 0,5 UV-I 95 W/m 7,5 C 8,3 C 1,6 km/h (1 Bft)
13.10.2022 10:30 8,2 C 9,4 C 95 % 1021,4 hPa 0,0 l/m 0,0 km/h (0 Bft) N-NW 333 0 min 0,5 UV-I 91 W/m 7,4 C 8,2 C 0,0 km/h (0 Bft)
13.10.2022 10:33 8,3 C 9,4 C 95 % 1021,3 hPa 0,0 l/m 0,0 km/h (0 Bft) N-NW 333 0 min 0,5 UV-I 92 W/m 7,5 C 8,3 C 0,0 km/h (0 Bft)
13.10.2022 10:36 8,4 C 9,4 C 95 % 1021,4 hPa 0,0 l/m 0,9 km/h (0 Bft) N-NW 333 0 min 0,5 UV-I 93 W/m 7,6 C 8,4 C 1,6 km/h (1 Bft)
13.10.2022 10:39 8,6 C 9,4 C 95 % 1021,3 hPa 0,0 l/m 0,4 km/h (0 Bft) N-NW 333 0 min 0,5 UV-I 97 W/m 7,8 C 8,6 C 1,6 km/h (1 Bft)
13.10.2022 10:42 8,6 C 9,4 C 95 % 1021,4 hPa 0,0 l/m 0,0 km/h (0 Bft) N-NW 333 0 min 0,6 UV-I 104 W/m 7,8 C 8,6 C 0,0 km/h (0 Bft)
13.10.2022 10:45 8,7 C 9,4 C 95 % 1021,3 hPa 0,0 l/m 0,0 km/h (0 Bft) N-NW 333 0 min 0,6 UV-I 111 W/m 7,9 C 8,7 C 1,6 km/h (1 Bft)
13.10.2022 10:48 8,7 C 9,4 C 95 % 1021,3 hPa 0,0 l/m 0,0 km/h (0 Bft) N-NW 333 0 min 0,6 UV-I 114 W/m 7,9 C 8,7 C 0,0 km/h (0 Bft)
13.10.2022 10:51 8,7 C 9,4 C 95 % 1021,4 hPa 0,0 l/m 0,0 km/h (0 Bft) N-NW 333 0 min 0,6 UV-I 113 W/m 7,9 C 8,7 C 0,0 km/h (0 Bft)
13.10.2022 10:54 8,9 C 10,0 C 95 % 1021,4 hPa 0,0 l/m 0,0 km/h (0 Bft) N-NW 333 0 min 0,7 UV-I 113 W/m 8,1 C 8,9 C 0,0 km/h (0 Bft)
13.10.2022 10:57 8,8 C 10,6 C 95 % 1021,3 hPa 0,0 l/m 0,1 km/h (0 Bft) N-NW 333 0 min 0,6 UV-I 109 W/m 8,0 C 8,8 C 1,6 km/h (1 Bft)
13.10.2022 11:00 8,9 C 11,1 C 95 % 1021,3 hPa 0,0 l/m 0,1 km/h (0 Bft) N-NW 333 0 min 0,6 UV-I 108 W/m 8,1 C 8,9 C 1,6 km/h (1 Bft)
13.10.2022 11:03 9,1 C 11,1 C 95 % 1021,4 hPa 0,0 l/m 0,2 km/h (0 Bft) N-NW 333 0 min 0,6 UV-I 99 W/m 8,3 C 9,1 C 1,6 km/h (1 Bft)
13.10.2022 11:06 9,1 C 10,6 C 95 % 1021,3 hPa 0,0 l/m 0,0 km/h (0 Bft) N-NW 333 0 min 0,6 UV-I 100 W/m 8,3 C 9,1 C 0,0 km/h (0 Bft)
13.10.2022 11:09 9,3 C 10,6 C 95 % 1021,3 hPa 0,0 l/m 1,7 km/h (1 Bft) NW 321 0 min 0,6 UV-I 104 W/m 8,5 C 9,3 C 4,8 km/h (1 Bft)
13.10.2022 11:12 9,7 C 11,1 C 95 % 1021,2 hPa 0,0 l/m 3,7 km/h (1 Bft) SW 218 0 min 0,7 UV-I 114 W/m 8,9 C 9,7 C 11,3 km/h (2 Bft)
13.10.2022 11:15 9,9 C 11,1 C 95 % 1021,3 hPa 0,0 l/m 6,3 km/h (2 Bft) SW 220 0 min 0,7 UV-I 115 W/m 9,1 C 9,9 C 14,5 km/h (3 Bft)
13.10.2022 11:18 9,9 C 10,6 C 95 % 1021,3 hPa 0,0 l/m 6,3 km/h (2 Bft) SW 219 0 min 0,6 UV-I 105 W/m 9,1 C 9,9 C 9,7 km/h (2 Bft)
13.10.2022 11:21 10,1 C 10,6 C 95 % 1021,2 hPa 0,0 l/m 6,7 km/h (2 Bft) S-SW 196 0 min 0,6 UV-I 102 W/m 9,3 C 9,9 C 9,7 km/h (2 Bft)
13.10.2022 11:24 10,0 C 10,6 C 95 % 1021,3 hPa 0,0 l/m 6,4 km/h (2 Bft) W-SW 249 0 min 0,7 UV-I 114 W/m 9,2 C 10,0 C 11,3 km/h (2 Bft)
13.10.2022 11:27 10,0 C 11,1 C 95 % 1021,2 hPa 0,0 l/m 4,7 km/h (1 Bft) SW 223 0 min 0,7 UV-I 115 W/m 9,2 C 10,0 C 9,7 km/h (2 Bft)
13.10.2022 11:30 10,1 C 11,1 C 95 % 1021,2 hPa 0,0 l/m 5,6 km/h (1 Bft) S-SW 206 0 min 0,7 UV-I 117 W/m 9,3 C 10,1 C 12,9 km/h (3 Bft)
13.10.2022 11:33 10,0 C 10,6 C 95 % 1021,1 hPa 0,0 l/m 9,7 km/h (2 Bft) W-SW 237 0 min 0,7 UV-I 111 W/m 9,2 C 7,8 C 14,5 km/h (3 Bft)
13.10.2022 11:36 10,1 C 10,6 C 95 % 1021,2 hPa 0,0 l/m 6,3 km/h (2 Bft) SW 223 0 min 0,7 UV-I 106 W/m 9,3 C 10,1 C 11,3 km/h (2 Bft)
13.10.2022 11:39 10,1 C 10,6 C 95 % 1021,2 hPa 0,0 l/m 8,0 km/h (2 Bft) SW 231 0 min 0,6 UV-I 99 W/m 9,3 C 9,0 C 11,3 km/h (2 Bft)
13.10.2022 11:42 10,2 C 10,6 C 95 % 1021,2 hPa 0,0 l/m 6,1 km/h (2 Bft) S-SW 206 0 min 0,7 UV-I 109 W/m 9,4 C 10,2 C 11,3 km/h (2 Bft)
13.10.2022 11:45 10,2 C 11,1 C 95 % 1021,1 hPa 0,0 l/m 7,7 km/h (2 Bft) S-SW 206 0 min 0,8 UV-I 132 W/m 9,4 C 9,3 C 11,3 km/h (2 Bft)
13.10.2022 11:48 10,3 C 11,1 C 95 % 1021,0 hPa 0,0 l/m 5,5 km/h (1 Bft) W-SW 251 0 min 1,0 UV-I 146 W/m 9,5 C 10,3 C 9,7 km/h (2 Bft)
13.10.2022 11:51 10,4 C 11,1 C 95 % 1021,0 hPa 0,0 l/m 7,7 km/h (2 Bft) S 190 0 min 1,0 UV-I 147 W/m 9,6 C 9,5 C 12,9 km/h (3 Bft)
13.10.2022 11:54 10,4 C 11,1 C 95 % 1021,0 hPa 0,0 l/m 9,4 km/h (2 Bft) S 184 0 min 1,1 UV-I 147 W/m 9,6 C 8,4 C 14,5 km/h (3 Bft)
13.10.2022 11:57 10,4 C 11,1 C 94 % 1020,9 hPa 0,0 l/m 10,3 km/h (2 Bft) S 176 0 min 1,1 UV-I 150 W/m 9,5 C 7,9 C 16,1 km/h (3 Bft)
13.10.2022 12:00 10,6 C 11,7 C 94 % 1020,8 hPa 0,0 l/m 8,2 km/h (2 Bft) S 183 0 min 1,2 UV-I 164 W/m 9,7 C 9,4 C 12,9 km/h (3 Bft)
13.10.2022 12:03 10,8 C 12,8 C 94 % 1020,8 hPa 0,0 l/m 6,3 km/h (2 Bft) S-SW 205 0 min 1,4 UV-I 211 W/m 9,9 C 10,8 C 14,5 km/h (3 Bft)
13.10.2022 12:06 10,9 C 13,3 C 94 % 1020,8 hPa 0,0 l/m 11,4 km/h (2 Bft) S-SO 167 0 min 1,7 UV-I 294 W/m 10,0 C 7,8 C 17,7 km/h (3 Bft)
13.10.2022 12:09 11,1 C 13,9 C 94 % 1020,7 hPa 0,0 l/m 8,9 km/h (2 Bft) SW 226 0 min 1,7 UV-I 291 W/m 10,2 C 9,4 C 17,7 km/h (3 Bft)
13.10.2022 12:12 11,3 C 13,9 C 94 % 1020,6 hPa 0,0 l/m 7,5 km/h (2 Bft) S-SO 163 0 min 1,6 UV-I 283 W/m 10,4 C 10,5 C 12,9 km/h (3 Bft)
13.10.2022 12:15 11,4 C 14,4 C 93 % 1020,6 hPa 0,0 l/m 8,8 km/h (2 Bft) S-SW 198 0 min 1,7 UV-I 306 W/m 10,3 C 9,8 C 14,5 km/h (3 Bft)
13.10.2022 12:18 11,7 C 15,6 C 93 % 1020,6 hPa 0,0 l/m 10,4 km/h (2 Bft) S 190 0 min 2,1 UV-I 376 W/m 10,6 C 9,3 C 17,7 km/h (3 Bft)
13.10.2022 12:21 12,1 C 16,7 C 93 % 1020,4 hPa 0,0 l/m 8,4 km/h (2 Bft) S 182 0 min 2,0 UV-I 391 W/m 11,0 C 10,8 C 14,5 km/h (3 Bft)
13.10.2022 12:24 12,4 C 16,1 C 92 % 1020,5 hPa 0,0 l/m 6,7 km/h (2 Bft) SO 136 0 min 1,8 UV-I 322 W/m 11,1 C 12,2 C 12,9 km/h (3 Bft)
13.10.2022 12:27 12,4 C 16,1 C 91 % 1020,5 hPa 0,0 l/m 8,6 km/h (2 Bft) S-SW 200 0 min 1,9 UV-I 382 W/m 11,0 C 11,0 C 22,5 km/h (4 Bft)
13.10.2022 12:30 12,5 C 14,4 C 90 % 1020,5 hPa 0,0 l/m 9,9 km/h (2 Bft) SO 137 0 min 1,8 UV-I 321 W/m 10,9 C 10,4 C 20,9 km/h (4 Bft)
13.10.2022 12:33 12,6 C 14,4 C 88 % 1020,6 hPa 0,0 l/m 12,1 km/h (2 Bft) S-SW 202 0 min 1,7 UV-I 315 W/m 10,7 C 9,5 C 17,7 km/h (3 Bft)
13.10.2022 12:36 12,6 C 13,9 C 87 % 1020,5 hPa 0,0 l/m 11,8 km/h (2 Bft) S-SW 205 0 min 1,5 UV-I 261 W/m 10,5 C 9,6 C 17,7 km/h (3 Bft)
13.10.2022 12:39 12,6 C 13,3 C 86 % 1020,4 hPa 0,0 l/m 10,0 km/h (2 Bft) S 185 0 min 1,4 UV-I 237 W/m 10,3 C 10,5 C 17,7 km/h (3 Bft)
13.10.2022 12:42 12,7 C 13,3 C 86 % 1020,5 hPa 0,0 l/m 12,8 km/h (3 Bft) S 190 0 min 1,4 UV-I 229 W/m 10,4 C 9,3 C 20,9 km/h (4 Bft)
13.10.2022 12:45 12,6 C 12,8 C 85 % 1020,4 hPa 0,0 l/m 14,6 km/h (3 Bft) S-SW 207 0 min 1,3 UV-I 215 W/m 10,1 C 8,4 C 19,3 km/h (3 Bft)
13.10.2022 12:48 12,6 C 12,8 C 84 % 1020,4 hPa 0,0 l/m 14,9 km/h (3 Bft) S 183 0 min 1,3 UV-I 216 W/m 10,0 C 8,3 C 22,5 km/h (4 Bft)
13.10.2022 12:51 12,6 C 13,3 C 84 % 1020,4 hPa 0,0 l/m 13,1 km/h (3 Bft) S 187 0 min 1,4 UV-I 231 W/m 10,0 C 9,0 C 22,5 km/h (4 Bft)
13.10.2022 12:54 12,7 C 13,3 C 84 % 1020,4 hPa 0,0 l/m 13,1 km/h (3 Bft) S 186 0 min 1,6 UV-I 276 W/m 10,1 C 9,2 C 17,7 km/h (3 Bft)
13.10.2022 12:57 12,8 C 13,9 C 84 % 1020,3 hPa 0,0 l/m 11,4 km/h (2 Bft) SW 227 0 min 1,6 UV-I 268 W/m 10,2 C 10,0 C 16,1 km/h (3 Bft)
13.10.2022 13:00 12,9 C 14,4 C 83 % 1020,3 hPa 0,0 l/m 8,7 km/h (2 Bft) S-SW 200 0 min 1,6 UV-I 284 W/m 10,1 C 11,5 C 17,7 km/h (3 Bft)
13.10.2022 13:03 12,9 C 14,4 C 83 % 1020,2 hPa 0,0 l/m 13,0 km/h (3 Bft) S-SW 211 0 min 1,7 UV-I 306 W/m 10,1 C 9,4 C 19,3 km/h (3 Bft)
13.10.2022 13:06 12,9 C 13,9 C 83 % 1020,2 hPa 0,0 l/m 9,5 km/h (2 Bft) S 191 0 min 1,6 UV-I 289 W/m 10,1 C 11,1 C 16,1 km/h (3 Bft)
13.10.2022 13:09 13,1 C 13,9 C 83 % 1020,1 hPa 0,0 l/m 11,2 km/h (2 Bft) S 189 0 min 1,4 UV-I 244 W/m 10,3 C 10,4 C 17,7 km/h (3 Bft)
13.10.2022 13:12 12,8 C 12,8 C 82 % 1019,9 hPa 0,0 l/m 13,5 km/h (3 Bft) S-SW 207 0 min 1,2 UV-I 200 W/m 9,8 C 9,1 C 24,1 km/h (4 Bft)
13.10.2022 13:15 12,8 C 12,8 C 83 % 1020,0 hPa 0,0 l/m 11,4 km/h (2 Bft) S-SO 161 0 min 1,1 UV-I 186 W/m 10,0 C 10,0 C 19,3 km/h (3 Bft)
13.10.2022 13:18 12,7 C 12,8 C 84 % 1019,9 hPa 0,0 l/m 10,2 km/h (2 Bft) S-SW 204 0 min 1,2 UV-I 192 W/m 10,1 C 10,5 C 16,1 km/h (3 Bft)
13.10.2022 13:21 12,8 C 12,8 C 84 % 1020,0 hPa 0,0 l/m 10,6 km/h (2 Bft) S-SW 197 0 min 1,2 UV-I 188 W/m 10,2 C 10,4 C 16,1 km/h (3 Bft)
13.10.2022 13:24 12,7 C 12,8 C 84 % 1019,9 hPa 0,0 l/m 8,9 km/h (2 Bft) S-SO 157 0 min 1,0 UV-I 170 W/m 10,1 C 11,2 C 16,1 km/h (3 Bft)
13.10.2022 13:27 12,6 C 12,8 C 85 % 1019,9 hPa 0,0 l/m 10,6 km/h (2 Bft) S 188 0 min 0,9 UV-I 152 W/m 10,1 C 10,2 C 17,7 km/h (3 Bft)
13.10.2022 13:30 12,6 C 12,8 C 85 % 1020,0 hPa 0,0 l/m 8,9 km/h (2 Bft) S 188 0 min 0,7 UV-I 118 W/m 10,1 C 11,1 C 16,1 km/h (3 Bft)
13.10.2022 13:33 12,4 C 12,2 C 85 % 1020,0 hPa 0,0 l/m 15,0 km/h (3 Bft) S 180 0 min 0,7 UV-I 121 W/m 9,9 C 8,0 C 22,5 km/h (4 Bft)
13.10.2022 13:36 12,4 C 12,2 C 85 % 1019,9 hPa 0,0 l/m 13,7 km/h (3 Bft) S 187 0 min 0,6 UV-I 102 W/m 9,9 C 8,6 C 19,3 km/h (3 Bft)
13.10.2022 13:39 12,3 C 11,7 C 85 % 1019,9 hPa 0,0 l/m 14,5 km/h (3 Bft) S-SW 204 0 min 0,5 UV-I 83 W/m 9,9 C 8,1 C 20,9 km/h (4 Bft)
13.10.2022 13:42 12,3 C 12,2 C 85 % 1020,0 hPa 0,0 l/m 11,4 km/h (2 Bft) S 190 0 min 0,5 UV-I 90 W/m 9,9 C 9,4 C 19,3 km/h (3 Bft)
13.10.2022 13:45 12,3 C 12,2 C 85 % 1019,9 hPa 0,0 l/m 10,1 km/h (2 Bft) S-SW 193 0 min 0,4 UV-I 92 W/m 9,9 C 10,1 C 20,9 km/h (4 Bft)
13.10.2022 13:48 12,3 C 12,2 C 85 % 1019,9 hPa 0,0 l/m 11,3 km/h (2 Bft) S-SW 196 0 min 0,5 UV-I 90 W/m 9,9 C 9,5 C 16,1 km/h (3 Bft)
13.10.2022 13:51 12,3 C 12,2 C 85 % 1019,8 hPa 0,0 l/m 9,4 km/h (2 Bft) SW 217 0 min 0,4 UV-I 83 W/m 9,9 C 10,5 C 14,5 km/h (3 Bft)
13.10.2022 13:54 12,3 C 11,7 C 85 % 1019,7 hPa 0,0 l/m 11,0 km/h (2 Bft) S-SW 212 0 min 0,5 UV-I 79 W/m 9,9 C 9,6 C 16,1 km/h (3 Bft)
13.10.2022 13:57 12,3 C 12,2 C 85 % 1019,8 hPa 0,0 l/m 8,8 km/h (2 Bft) S-SO 158 0 min 0,6 UV-I 99 W/m 9,9 C 10,8 C 14,5 km/h (3 Bft)
13.10.2022 14:00 12,4 C 12,2 C 86 % 1019,7 hPa 0,0 l/m 8,9 km/h (2 Bft) S 185 0 min 0,8 UV-I 138 W/m 10,1 C 10,8 C 14,5 km/h (3 Bft)
13.10.2022 14:03 12,4 C 12,8 C 85 % 1019,8 hPa 0,0 l/m 13,4 km/h (3 Bft) S-SO 167 0 min 1,1 UV-I 189 W/m 9,9 C 8,7 C 22,5 km/h (4 Bft)
13.10.2022 14:06 12,6 C 13,3 C 85 % 1019,6 hPa 0,0 l/m 10,3 km/h (2 Bft) S 191 0 min 1,3 UV-I 226 W/m 10,1 C 10,3 C 19,3 km/h (3 Bft)
13.10.2022 14:09 12,7 C 13,3 C 85 % 1019,6 hPa 0,0 l/m 10,0 km/h (2 Bft) S-SW 200 0 min 1,4 UV-I 258 W/m 10,2 C 10,6 C 17,7 km/h (3 Bft)
13.10.2022 14:12 12,8 C 13,3 C 85 % 1019,6 hPa 0,0 l/m 12,0 km/h (2 Bft) S-SW 198 0 min 1,4 UV-I 257 W/m 10,3 C 9,7 C 19,3 km/h (3 Bft)
13.10.2022 14:15 12,9 C 13,3 C 85 % 1019,6 hPa 0,0 l/m 9,7 km/h (2 Bft) S-SW 210 0 min 1,3 UV-I 231 W/m 10,4 C 11,0 C 16,1 km/h (3 Bft)
13.10.2022 14:18 12,9 C 13,3 C 84 % 1019,5 hPa 0,0 l/m 12,4 km/h (3 Bft) S-SW 212 0 min 1,2 UV-I 212 W/m 10,3 C 9,7 C 19,3 km/h (3 Bft)
13.10.2022 14:21 12,9 C 13,3 C 84 % 1019,5 hPa 0,0 l/m 10,8 km/h (2 Bft) S-SW 205 0 min 0,9 UV-I 171 W/m 10,3 C 10,4 C 17,7 km/h (3 Bft)
13.10.2022 14:24 13,0 C 13,3 C 84 % 1019,5 hPa 0,0 l/m 7,8 km/h (2 Bft) S 188 0 min 0,9 UV-I 157 W/m 10,4 C 12,1 C 11,3 km/h (2 Bft)
13.10.2022 14:27 13,1 C 13,3 C 84 % 1019,6 hPa 0,0 l/m 9,2 km/h (2 Bft) S 170 0 min 0,7 UV-I 121 W/m 10,5 C 11,4 C 14,5 km/h (3 Bft)
13.10.2022 14:30 13,0 C 13,3 C 84 % 1019,5 hPa 0,0 l/m 9,8 km/h (2 Bft) S-SO 157 0 min 0,7 UV-I 132 W/m 10,4 C 11,0 C 16,1 km/h (3 Bft)
13.10.2022 14:33 13,1 C 13,3 C 84 % 1019,5 hPa 0,0 l/m 9,4 km/h (2 Bft) S-SW 200 0 min 0,7 UV-I 129 W/m 10,5 C 11,3 C 16,1 km/h (3 Bft)
13.10.2022 14:36 12,9 C 12,8 C 83 % 1019,5 hPa 0,0 l/m 13,5 km/h (3 Bft) S-SW 193 0 min 0,8 UV-I 138 W/m 10,1 C 9,2 C 22,5 km/h (4 Bft)
13.10.2022 14:39 12,9 C 12,8 C 83 % 1019,6 hPa 0,0 l/m 12,8 km/h (3 Bft) S 183 0 min 0,8 UV-I 137 W/m 10,1 C 9,5 C 19,3 km/h (3 Bft)
13.10.2022 14:42 12,9 C 12,8 C 83 % 1019,5 hPa 0,0 l/m 13,5 km/h (3 Bft) S 180 0 min 0,8 UV-I 139 W/m 10,1 C 9,2 C 24,1 km/h (4 Bft)
13.10.2022 14:45 12,9 C 12,8 C 83 % 1019,5 hPa 0,0 l/m 12,7 km/h (3 Bft) S 173 0 min 0,7 UV-I 128 W/m 10,1 C 9,6 C 25,7 km/h (4 Bft)
13.10.2022 14:48 12,9 C 13,3 C 83 % 1019,5 hPa 0,0 l/m 12,0 km/h (2 Bft) S 178 0 min 1,1 UV-I 190 W/m 10,1 C 9,9 C 19,3 km/h (3 Bft)
13.10.2022 14:51 13,1 C 13,9 C 83 % 1019,5 hPa 0,0 l/m 13,1 km/h (3 Bft) S 181 0 min 1,2 UV-I 215 W/m 10,3 C 9,6 C 19,3 km/h (3 Bft)
13.10.2022 14:54 13,2 C 13,9 C 83 % 1019,5 hPa 0,0 l/m 12,3 km/h (3 Bft) SW 216 0 min 1,3 UV-I 227 W/m 10,4 C 10,1 C 25,7 km/h (4 Bft)
13.10.2022 14:57 13,2 C 13,9 C 82 % 1019,4 hPa 0,0 l/m 14,1 km/h (3 Bft) SW 219 0 min 1,3 UV-I 213 W/m 10,2 C 9,3 C 27,4 km/h (4 Bft)
13.10.2022 15:00 13,3 C 13,9 C 82 % 1019,5 hPa 0,0 l/m 12,6 km/h (3 Bft) S 187 0 min 1,2 UV-I 197 W/m 10,3 C 10,1 C 20,9 km/h (4 Bft)
13.10.2022 15:03 13,3 C 13,9 C 82 % 1019,4 hPa 0,0 l/m 13,6 km/h (3 Bft) S-SW 208 0 min 1,2 UV-I 196 W/m 10,3 C 9,7 C 30,6 km/h (5 Bft)
13.10.2022 15:06 13,3 C 14,4 C 82 % 1019,5 hPa 0,0 l/m 10,6 km/h (2 Bft) S-SO 161 0 min 1,1 UV-I 192 W/m 10,3 C 10,9 C 16,1 km/h (3 Bft)
13.10.2022 15:09 13,3 C 13,9 C 82 % 1019,4 hPa 0,0 l/m 11,2 km/h (2 Bft) S 177 0 min 1,0 UV-I 171 W/m 10,3 C 10,7 C 20,9 km/h (4 Bft)
13.10.2022 15:12 13,2 C 13,9 C 82 % 1019,4 hPa 0,0 l/m 12,7 km/h (3 Bft) S-SW 196 0 min 1,0 UV-I 170 W/m 10,2 C 9,9 C 22,5 km/h (4 Bft)
13.10.2022 15:15 13,2 C 13,9 C 82 % 1019,4 hPa 0,0 l/m 10,3 km/h (2 Bft) S 174 0 min 0,9 UV-I 161 W/m 10,2 C 11,0 C 19,3 km/h (3 Bft)
13.10.2022 15:18 13,3 C 13,9 C 83 % 1019,3 hPa 0,0 l/m 9,2 km/h (2 Bft) SO 130 0 min 1,0 UV-I 170 W/m 10,5 C 11,7 C 16,1 km/h (3 Bft)
13.10.2022 15:21 13,3 C 14,4 C 82 % 1019,4 hPa 0,0 l/m 11,4 km/h (2 Bft) S-SW 197 0 min 1,3 UV-I 217 W/m 10,3 C 10,6 C 20,9 km/h (4 Bft)
13.10.2022 15:24 13,3 C 14,4 C 82 % 1019,4 hPa 0,0 l/m 12,6 km/h (3 Bft) S-SW 193 0 min 1,2 UV-I 211 W/m 10,3 C 10,1 C 24,1 km/h (4 Bft)
13.10.2022 15:27 13,2 C 13,9 C 82 % 1019,4 hPa 0,0 l/m 13,4 km/h (3 Bft) S-SW 200 0 min 1,2 UV-I 196 W/m 10,2 C 9,6 C 20,9 km/h (4 Bft)
13.10.2022 15:30 13,2 C 13,3 C 82 % 1019,4 hPa 0,0 l/m 11,0 km/h (2 Bft) S 186 0 min 0,8 UV-I 141 W/m 10,2 C 10,6 C 17,7 km/h (3 Bft)
13.10.2022 15:33 13,1 C 13,3 C 82 % 1019,4 hPa 0,0 l/m 12,0 km/h (2 Bft) SW 215 0 min 0,6 UV-I 119 W/m 10,1 C 10,1 C 27,4 km/h (4 Bft)
13.10.2022 15:36 12,9 C 13,3 C 83 % 1019,2 hPa 0,0 l/m 13,6 km/h (3 Bft) S-SO 161 0 min 0,8 UV-I 152 W/m 10,1 C 9,2 C 20,9 km/h (4 Bft)
13.10.2022 15:39 12,9 C 13,3 C 84 % 1019,3 hPa 0,0 l/m 11,4 km/h (2 Bft) SO 142 0 min 1,0 UV-I 164 W/m 10,3 C 10,1 C 17,7 km/h (3 Bft)
13.10.2022 15:42 13,0 C 13,9 C 84 % 1019,2 hPa 0,0 l/m 9,3 km/h (2 Bft) S-SW 194 0 min 1,0 UV-I 189 W/m 10,4 C 11,3 C 20,9 km/h (4 Bft)
13.10.2022 15:45 13,2 C 14,4 C 84 % 1019,3 hPa 0,0 l/m 9,2 km/h (2 Bft) SW 224 0 min 1,1 UV-I 202 W/m 10,6 C 11,5 C 17,7 km/h (3 Bft)
13.10.2022 15:48 13,2 C 13,9 C 83 % 1019,2 hPa 0,0 l/m 12,7 km/h (3 Bft) S-SO 149 0 min 1,0 UV-I 188 W/m 10,4 C 9,9 C 24,1 km/h (4 Bft)
13.10.2022 15:51 13,1 C 13,3 C 83 % 1019,2 hPa 0,0 l/m 15,5 km/h (3 Bft) S 169 0 min 0,9 UV-I 168 W/m 10,3 C 8,7 C 24,1 km/h (4 Bft)
13.10.2022 15:54 13,1 C 13,3 C 83 % 1019,2 hPa 0,0 l/m 11,4 km/h (2 Bft) S-SW 207 0 min 0,9 UV-I 150 W/m 10,3 C 10,4 C 19,3 km/h (3 Bft)
13.10.2022 15:57 13,0 C 13,3 C 83 % 1019,2 hPa 0,0 l/m 13,1 km/h (3 Bft) S-SW 200 0 min 0,9 UV-I 150 W/m 10,2 C 9,5 C 20,9 km/h (4 Bft)
13.10.2022 16:00 13,0 C 13,9 C 84 % 1019,1 hPa 0,0 l/m 11,6 km/h (2 Bft) S-SW 207 0 min 0,9 UV-I 163 W/m 10,4 C 10,1 C 16,1 km/h (3 Bft)
13.10.2022 16:03 13,1 C 13,9 C 84 % 1019,1 hPa 0,0 l/m 11,0 km/h (2 Bft) S-SO 161 0 min 0,9 UV-I 192 W/m 10,5 C 10,5 C 17,7 km/h (3 Bft)
13.10.2022 16:06 13,2 C 14,4 C 83 % 1019,0 hPa 0,0 l/m 10,0 km/h (2 Bft) S 189 0 min 1,0 UV-I 198 W/m 10,4 C 11,1 C 16,1 km/h (3 Bft)
13.10.2022 16:09 13,2 C 14,4 C 84 % 1018,9 hPa 0,0 l/m 8,6 km/h (2 Bft) S-SO 162 0 min 1,0 UV-I 176 W/m 10,6 C 11,9 C 16,1 km/h (3 Bft)
13.10.2022 16:12 13,2 C 13,9 C 83 % 1019,0 hPa 0,0 l/m 10,6 km/h (2 Bft) S 171 0 min 0,9 UV-I 148 W/m 10,4 C 10,8 C 19,3 km/h (3 Bft)
13.10.2022 16:15 13,1 C 13,3 C 83 % 1019,0 hPa 0,0 l/m 12,5 km/h (3 Bft) S-SW 208 0 min 0,6 UV-I 101 W/m 10,3 C 9,9 C 22,5 km/h (4 Bft)
13.10.2022 16:18 13,1 C 13,3 C 83 % 1018,9 hPa 0,0 l/m 11,0 km/h (2 Bft) S-SO 166 0 min 0,1 UV-I 69 W/m 10,3 C 10,5 C 19,3 km/h (3 Bft)
13.10.2022 16:21 13,0 C 12,8 C 84 % 1018,9 hPa 0,0 l/m 10,6 km/h (2 Bft) S-SO 157 0 min 0,0 UV-I 78 W/m 10,4 C 10,6 C 22,5 km/h (4 Bft)
13.10.2022 16:24 13,1 C 13,3 C 84 % 1018,9 hPa 0,0 l/m 8,4 km/h (2 Bft) S-SW 209 0 min 0,4 UV-I 121 W/m 10,5 C 11,9 C 14,5 km/h (3 Bft)
13.10.2022 16:27 13,1 C 13,3 C 84 % 1018,9 hPa 0,0 l/m 8,3 km/h (2 Bft) S-SO 167 0 min 0,7 UV-I 165 W/m 10,5 C 11,9 C 14,5 km/h (3 Bft)
13.10.2022 16:30 13,2 C 13,9 C 84 % 1018,9 hPa 0,0 l/m 6,5 km/h (2 Bft) S 191 0 min 0,6 UV-I 135 W/m 10,6 C 13,2 C 14,5 km/h (3 Bft)
13.10.2022 16:33 13,2 C 13,3 C 83 % 1018,9 hPa 0,0 l/m 10,8 km/h (2 Bft) S-SW 198 0 min 0,4 UV-I 116 W/m 10,4 C 10,7 C 25,7 km/h (4 Bft)
13.10.2022 16:36 13,2 C 13,3 C 84 % 1018,9 hPa 0,0 l/m 9,1 km/h (2 Bft) SO 146 0 min 0,0 UV-I 90 W/m 10,6 C 11,6 C 19,3 km/h (3 Bft)
13.10.2022 16:39 13,1 C 12,8 C 84 % 1018,9 hPa 0,0 l/m 9,0 km/h (2 Bft) S-SW 204 0 min 0,0 UV-I 81 W/m 10,5 C 11,5 C 17,7 km/h (3 Bft)
13.10.2022 16:42 13,1 C 12,8 C 84 % 1018,9 hPa 0,0 l/m 7,8 km/h (2 Bft) S-SO 156 0 min 0,0 UV-I 70 W/m 10,5 C 12,2 C 14,5 km/h (3 Bft)
13.10.2022 16:45 12,9 C 12,8 C 84 % 1018,9 hPa 0,0 l/m 8,3 km/h (2 Bft) S-SO 154 0 min 0,0 UV-I 65 W/m 10,3 C 11,7 C 20,9 km/h (4 Bft)
13.10.2022 16:48 12,8 C 12,8 C 84 % 1018,8 hPa 0,0 l/m 11,2 km/h (2 Bft) S-SW 196 0 min 0,0 UV-I 47 W/m 10,2 C 10,1 C 19,3 km/h (3 Bft)
13.10.2022 16:51 12,8 C 12,2 C 85 % 1018,9 hPa 0,0 l/m 10,6 km/h (2 Bft) S-SO 150 0 min 0,1 UV-I 107 W/m 10,3 C 10,4 C 24,1 km/h (4 Bft)
13.10.2022 16:54 12,8 C 12,8 C 85 % 1018,8 hPa 0,0 l/m 13,4 km/h (3 Bft) S-SO 160 0 min 0,7 UV-I 186 W/m 10,3 C 9,1 C 25,7 km/h (4 Bft)
13.10.2022 16:57 12,9 C 13,3 C 86 % 1018,7 hPa 0,0 l/m 11,5 km/h (2 Bft) S-SW 202 0 min 0,7 UV-I 195 W/m 10,6 C 10,1 C 17,7 km/h (3 Bft)
13.10.2022 17:00 12,8 C 13,3 C 85 % 1018,8 hPa 0,0 l/m 11,2 km/h (2 Bft) S 183 0 min 0,6 UV-I 147 W/m 10,3 C 10,1 C 19,3 km/h (3 Bft)
13.10.2022 17:03 12,8 C 13,3 C 86 % 1018,7 hPa 0,0 l/m 11,1 km/h (2 Bft) S-SW 200 0 min 0,3 UV-I 105 W/m 10,5 C 10,1 C 24,1 km/h (4 Bft)
13.10.2022 17:06 12,8 C 13,3 C 85 % 1018,8 hPa 0,0 l/m 11,0 km/h (2 Bft) S 185 0 min 0,0 UV-I 111 W/m 10,3 C 10,2 C 19,3 km/h (3 Bft)
13.10.2022 17:09 12,7 C 13,3 C 86 % 1018,8 hPa 0,0 l/m 13,1 km/h (3 Bft) S-SW 194 0 min 0,5 UV-I 138 W/m 10,4 C 9,2 C 24,1 km/h (4 Bft)
13.10.2022 17:12 12,7 C 13,3 C 86 % 1018,8 hPa 0,0 l/m 12,7 km/h (3 Bft) S 175 0 min 0,5 UV-I 128 W/m 10,4 C 9,3 C 22,5 km/h (4 Bft)
13.10.2022 17:15 12,7 C 13,3 C 86 % 1018,7 hPa 0,0 l/m 13,9 km/h (3 Bft) S 169 0 min 0,5 UV-I 133 W/m 10,4 C 8,8 C 22,5 km/h (4 Bft)
13.10.2022 17:18 12,8 C 13,3 C 86 % 1018,7 hPa 0,0 l/m 10,7 km/h (2 Bft) SW 229 0 min 0,3 UV-I 116 W/m 10,5 C 10,3 C 19,3 km/h (3 Bft)
13.10.2022 17:21 12,8 C 12,8 C 85 % 1018,7 hPa 0,0 l/m 10,3 km/h (2 Bft) SW 217 0 min 0,0 UV-I 80 W/m 10,3 C 10,5 C 14,5 km/h (3 Bft)
13.10.2022 17:24 12,7 C 12,8 C 86 % 1018,7 hPa 0,0 l/m 11,0 km/h (2 Bft) S-SW 196 0 min 0,0 UV-I 69 W/m 10,4 C 10,1 C 20,9 km/h (4 Bft)
13.10.2022 17:27 12,6 C 12,2 C 86 % 1018,8 hPa 0,0 l/m 11,6 km/h (2 Bft) S-SW 209 0 min 0,0 UV-I 37 W/m 10,3 C 9,7 C 17,7 km/h (3 Bft)
13.10.2022 17:30 12,5 C 11,7 C 86 % 1018,6 hPa 0,0 l/m 10,3 km/h (2 Bft) S 175 0 min 0,0 UV-I 26 W/m 10,2 C 10,2 C 16,1 km/h (3 Bft)
13.10.2022 17:33 12,4 C 11,7 C 87 % 1018,6 hPa 0,0 l/m 9,8 km/h (2 Bft) SW 215 0 min 0,0 UV-I 25 W/m 10,3 C 10,4 C 16,1 km/h (3 Bft)
13.10.2022 17:36 12,3 C 11,7 C 87 % 1018,6 hPa 0,0 l/m 9,5 km/h (2 Bft) S-SW 204 0 min 0,0 UV-I 22 W/m 10,2 C 10,4 C 14,5 km/h (3 Bft)
13.10.2022 17:39 12,2 C 11,1 C 87 % 1018,6 hPa 0,0 l/m 11,1 km/h (2 Bft) S 174 0 min 0,0 UV-I 27 W/m 10,1 C 9,5 C 17,7 km/h (3 Bft)
13.10.2022 17:42 12,2 C 11,1 C 88 % 1018,6 hPa 0,0 l/m 8,7 km/h (2 Bft) S 190 0 min 0,0 UV-I 33 W/m 10,3 C 10,7 C 14,5 km/h (3 Bft)
13.10.2022 17:45 12,1 C 11,1 C 88 % 1018,5 hPa 0,0 l/m 10,5 km/h (2 Bft) S-SW 192 0 min 0,0 UV-I 18 W/m 10,2 C 9,7 C 20,9 km/h (4 Bft)
13.10.2022 17:48 12,0 C 11,1 C 88 % 1018,6 hPa 0,0 l/m 9,3 km/h (2 Bft) S-SW 200 0 min 0,0 UV-I 11 W/m 10,1 C 10,2 C 14,5 km/h (3 Bft)
13.10.2022 17:51 11,9 C 11,1 C 89 % 1018,7 hPa 0,2 l/m 9,2 km/h (2 Bft) S-SW 210 0 min 0,0 UV-I 11 W/m 10,1 C 10,1 C 14,5 km/h (3 Bft)
13.10.2022 17:54 11,8 C 11,1 C 89 % 1018,7 hPa 0,0 l/m 13,1 km/h (3 Bft) S 182 0 min 0,0 UV-I 13 W/m 10,0 C 8,1 C 20,9 km/h (4 Bft)
13.10.2022 17:57 11,6 C 10,6 C 89 % 1018,8 hPa 0,0 l/m 13,2 km/h (3 Bft) S-SW 200 0 min 0,0 UV-I 16 W/m 9,8 C 7,8 C 17,7 km/h (3 Bft)
13.10.2022 18:00 11,4 C 10,6 C 89 % 1018,8 hPa 0,0 l/m 10,5 km/h (2 Bft) S-SW 203 0 min 0,0 UV-I 18 W/m 9,7 C 8,9 C 20,9 km/h (4 Bft)
13.10.2022 18:03 11,4 C 10,6 C 89 % 1018,7 hPa 0,0 l/m 12,4 km/h (3 Bft) S-SW 194 0 min 0,0 UV-I 13 W/m 9,7 C 7,9 C 22,5 km/h (4 Bft)
13.10.2022 18:06 11,3 C 10,6 C 90 % 1018,8 hPa 0,0 l/m 13,6 km/h (3 Bft) S-SW 204 0 min 0,0 UV-I 11 W/m 9,7 C 7,3 C 20,9 km/h (4 Bft)
13.10.2022 18:09 10,9 C 10,0 C 89 % 1018,9 hPa 0,0 l/m 19,6 km/h (3 Bft) S-SW 194 0 min 0,0 UV-I 10 W/m 9,2 C 4,6 C 30,6 km/h (5 Bft)
13.10.2022 18:12 10,6 C 9,4 C 89 % 1018,8 hPa 0,0 l/m 18,6 km/h (3 Bft) S-SW 200 0 min 0,0 UV-I 8 W/m 8,9 C 4,5 C 25,7 km/h (4 Bft)
13.10.2022 18:15 10,2 C 8,9 C 89 % 1018,9 hPa 0,0 l/m 19,2 km/h (3 Bft) S-SW 193 0 min 0,0 UV-I 3 W/m 8,5 C 3,8 C 30,6 km/h (5 Bft)
13.10.2022 18:18 9,8 C 8,9 C 89 % 1018,9 hPa 0,0 l/m 13,9 km/h (3 Bft) S-SW 211 0 min 0,0 UV-I 1 W/m 8,1 C 5,4 C 20,9 km/h (4 Bft)
13.10.2022 18:21 9,6 C 8,9 C 89 % 1019,0 hPa 0,0 l/m 13,2 km/h (3 Bft) S 189 0 min 0,0 UV-I 0 W/m 7,9 C 5,5 C 19,3 km/h (3 Bft)
13.10.2022 18:24 9,5 C 8,9 C 89 % 1018,9 hPa 0,0 l/m 14,7 km/h (3 Bft) SW 228 0 min 0,0 UV-I 0 W/m 7,8 C 4,7 C 22,5 km/h (4 Bft)
13.10.2022 18:27 9,4 C 8,9 C 89 % 1018,9 hPa 0,0 l/m 11,1 km/h (2 Bft) S-SW 208 0 min 0,0 UV-I 0 W/m 7,7 C 6,3 C 17,7 km/h (3 Bft)
13.10.2022 18:30 9,4 C 8,9 C 89 % 1019,0 hPa 0,0 l/m 12,7 km/h (3 Bft) SW 215 0 min 0,0 UV-I 0 W/m 7,7 C 5,5 C 17,7 km/h (3 Bft)
13.10.2022 18:33 9,4 C 8,9 C 90 % 1018,8 hPa 0,0 l/m 9,5 km/h (2 Bft) SW 220 0 min 0,0 UV-I 0 W/m 7,8 C 7,2 C 17,7 km/h (3 Bft)
13.10.2022 18:36 9,4 C 8,9 C 90 % 1018,8 hPa 0,0 l/m 7,6 km/h (2 Bft) S-SW 205 0 min 0,0 UV-I 0 W/m 7,8 C 8,5 C 11,3 km/h (2 Bft)
13.10.2022 18:39 9,4 C 8,9 C 90 % 1018,8 hPa 0,0 l/m 8,9 km/h (2 Bft) S-SW 198 0 min 0,0 UV-I 0 W/m 7,8 C 7,6 C 14,5 km/h (3 Bft)
13.10.2022 18:42 9,4 C 8,9 C 90 % 1018,9 hPa 0,0 l/m 7,6 km/h (2 Bft) SW 215 0 min 0,0 UV-I 0 W/m 7,8 C 8,5 C 12,9 km/h (3 Bft)
13.10.2022 18:45 9,4 C 8,9 C 90 % 1018,8 hPa 0,0 l/m 8,5 km/h (2 Bft) S-SW 194 0 min 0,0 UV-I 0 W/m 7,8 C 7,9 C 12,9 km/h (3 Bft)
13.10.2022 18:48 9,5 C 8,9 C 91 % 1018,9 hPa 0,0 l/m 7,9 km/h (2 Bft) S 189 0 min 0,0 UV-I 0 W/m 8,1 C 8,4 C 12,9 km/h (3 Bft)
13.10.2022 18:51 9,5 C 8,9 C 91 % 1018,9 hPa 0,0 l/m 11,8 km/h (2 Bft) S 175 0 min 0,0 UV-I 0 W/m 8,1 C 6,0 C 16,1 km/h (3 Bft)
13.10.2022 18:54 9,5 C 8,9 C 91 % 1018,9 hPa 0,0 l/m 7,9 km/h (2 Bft) S 182 0 min 0,0 UV-I 0 W/m 8,1 C 8,4 C 11,3 km/h (2 Bft)
13.10.2022 18:57 9,4 C 8,3 C 91 % 1018,9 hPa 0,0 l/m 6,9 km/h (2 Bft) S-SW 192 0 min 0,0 UV-I 0 W/m 8,0 C 9,0 C 11,3 km/h (2 Bft)
13.10.2022 19:00 9,4 C 8,3 C 91 % 1018,8 hPa 0,0 l/m 7,8 km/h (2 Bft) S 188 0 min 0,0 UV-I 0 W/m 8,0 C 8,4 C 11,3 km/h (2 Bft)
13.10.2022 19:03 9,4 C 8,3 C 90 % 1018,8 hPa 0,0 l/m 8,0 km/h (2 Bft) S 189 0 min 0,0 UV-I 0 W/m 7,8 C 8,2 C 12,9 km/h (3 Bft)
13.10.2022 19:06 9,3 C 8,3 C 91 % 1018,8 hPa 0,0 l/m 6,3 km/h (2 Bft) S 186 0 min 0,0 UV-I 0 W/m 7,9 C 9,3 C 11,3 km/h (2 Bft)
13.10.2022 19:09 9,3 C 8,3 C 91 % 1018,8 hPa 0,0 l/m 4,5 km/h (1 Bft) S 188 0 min 0,0 UV-I 0 W/m 7,9 C 9,3 C 8,0 km/h (2 Bft)
13.10.2022 19:12 9,3 C 8,3 C 91 % 1019,0 hPa 0,0 l/m 5,4 km/h (1 Bft) S-SO 167 0 min 0,0 UV-I 0 W/m 7,9 C 9,3 C 9,7 km/h (2 Bft)
13.10.2022 19:15 9,4 C 8,3 C 91 % 1018,9 hPa 0,0 l/m 5,1 km/h (1 Bft) S 190 0 min 0,0 UV-I 0 W/m 8,0 C 9,4 C 8,0 km/h (2 Bft)
13.10.2022 19:18 9,3 C 8,3 C 91 % 1019,1 hPa 0,0 l/m 5,7 km/h (1 Bft) S-SW 205 0 min 0,0 UV-I 0 W/m 7,9 C 9,3 C 11,3 km/h (2 Bft)
13.10.2022 19:21 9,4 C 8,9 C 91 % 1018,9 hPa 0,0 l/m 7,7 km/h (2 Bft) S-SW 207 0 min 0,0 UV-I 0 W/m 8,0 C 8,4 C 11,3 km/h (2 Bft)
13.10.2022 19:24 9,4 C 8,9 C 91 % 1018,9 hPa 0,0 l/m 6,9 km/h (2 Bft) S-SW 193 0 min 0,0 UV-I 0 W/m 8,0 C 9,0 C 11,3 km/h (2 Bft)
13.10.2022 19:27 9,4 C 8,9 C 91 % 1018,9 hPa 0,0 l/m 5,1 km/h (1 Bft) S 184 0 min 0,0 UV-I 0 W/m 8,0 C 9,4 C 9,7 km/h (2 Bft)
13.10.2022 19:30 9,4 C 8,9 C 91 % 1018,9 hPa 0,0 l/m 7,5 km/h (2 Bft) S 185 0 min 0,0 UV-I 0 W/m 8,0 C 8,6 C 11,3 km/h (2 Bft)
13.10.2022 19:33 9,4 C 8,9 C 91 % 1018,8 hPa 0,0 l/m 6,0 km/h (2 Bft) S 190 0 min 0,0 UV-I 0 W/m 8,0 C 9,4 C 9,7 km/h (2 Bft)
13.10.2022 19:36 9,5 C 8,9 C 91 % 1018,8 hPa 0,0 l/m 6,5 km/h (2 Bft) S-SW 200 0 min 0,0 UV-I 0 W/m 8,1 C 9,5 C 9,7 km/h (2 Bft)
13.10.2022 19:39 9,6 C 8,9 C 91 % 1018,9 hPa 0,0 l/m 6,5 km/h (2 Bft) S 189 0 min 0,0 UV-I 0 W/m 8,2 C 9,6 C 12,9 km/h (3 Bft)
13.10.2022 19:42 9,6 C 8,9 C 91 % 1018,9 hPa 0,0 l/m 6,9 km/h (2 Bft) SW 221 0 min 0,0 UV-I 0 W/m 8,2 C 9,2 C 9,7 km/h (2 Bft)
13.10.2022 19:45 9,7 C 8,9 C 91 % 1018,9 hPa 0,0 l/m 7,4 km/h (2 Bft) SW 236 0 min 0,0 UV-I 0 W/m 8,3 C 9,0 C 11,3 km/h (2 Bft)
13.10.2022 19:48 9,7 C 8,9 C 91 % 1018,9 hPa 0,0 l/m 6,6 km/h (2 Bft) S-SW 204 0 min 0,0 UV-I 0 W/m 8,3 C 9,6 C 9,7 km/h (2 Bft)
13.10.2022 19:51 9,8 C 8,9 C 91 % 1019,1 hPa 0,0 l/m 7,5 km/h (2 Bft) SW 225 0 min 0,0 UV-I 0 W/m 8,4 C 9,0 C 11,3 km/h (2 Bft)
13.10.2022 19:54 9,8 C 8,9 C 91 % 1019,1 hPa 0,0 l/m 7,2 km/h (2 Bft) S-SW 213 0 min 0,0 UV-I 0 W/m 8,4 C 9,2 C 9,7 km/h (2 Bft)
13.10.2022 19:57 9,8 C 9,4 C 91 % 1019,0 hPa 0,0 l/m 6,9 km/h (2 Bft) S-SW 206 0 min 0,0 UV-I 0 W/m 8,4 C 9,4 C 9,7 km/h (2 Bft)
13.10.2022 20:00 9,8 C 9,4 C 91 % 1018,9 hPa 0,0 l/m 7,3 km/h (2 Bft) S-SW 196 0 min 0,0 UV-I 0 W/m 8,4 C 9,1 C 11,3 km/h (2 Bft)
13.10.2022 20:03 9,8 C 9,4 C 91 % 1019,1 hPa 0,0 l/m 7,8 km/h (2 Bft) S-SW 195 0 min 0,0 UV-I 0 W/m 8,4 C 8,8 C 11,3 km/h (2 Bft)
13.10.2022 20:06 9,8 C 9,4 C 91 % 1019,1 hPa 0,0 l/m 7,3 km/h (2 Bft) S-SW 197 0 min 0,0 UV-I 0 W/m 8,4 C 9,1 C 9,7 km/h (2 Bft)
13.10.2022 20:09 9,8 C 9,4 C 91 % 1019,0 hPa 0,0 l/m 6,6 km/h (2 Bft) S-SW 207 0 min 0,0 UV-I 0 W/m 8,4 C 9,7 C 9,7 km/h (2 Bft)
13.10.2022 20:12 9,8 C 9,4 C 91 % 1019,1 hPa 0,0 l/m 5,2 km/h (1 Bft) S-SW 205 0 min 0,0 UV-I 0 W/m 8,4 C 9,8 C 8,0 km/h (2 Bft)
13.10.2022 20:15 9,8 C 9,4 C 92 % 1019,1 hPa 0,0 l/m 6,5 km/h (2 Bft) S 191 0 min 0,0 UV-I 0 W/m 8,6 C 9,8 C 9,7 km/h (2 Bft)
13.10.2022 20:18 9,9 C 9,4 C 92 % 1019,1 hPa 0,0 l/m 4,9 km/h (1 Bft) SW 215 0 min 0,0 UV-I 0 W/m 8,7 C 9,9 C 8,0 km/h (2 Bft)
13.10.2022 20:21 9,9 C 9,4 C 92 % 1019,0 hPa 0,0 l/m 5,0 km/h (1 Bft) S 190 0 min 0,0 UV-I 0 W/m 8,7 C 9,9 C 9,7 km/h (2 Bft)
13.10.2022 20:24 9,9 C 9,4 C 92 % 1019,0 hPa 0,0 l/m 5,5 km/h (1 Bft) S 187 0 min 0,0 UV-I 0 W/m 8,7 C 9,9 C 9,7 km/h (2 Bft)
13.10.2022 20:27 9,9 C 9,4 C 92 % 1019,1 hPa 0,0 l/m 4,9 km/h (1 Bft) S 172 0 min 0,0 UV-I 0 W/m 8,7 C 9,9 C 8,0 km/h (2 Bft)
13.10.2022 20:30 9,9 C 9,4 C 92 % 1019,1 hPa 0,0 l/m 6,9 km/h (2 Bft) S 171 0 min 0,0 UV-I 0 W/m 8,7 C 9,5 C 12,9 km/h (3 Bft)
13.10.2022 20:33 10,0 C 9,4 C 92 % 1019,1 hPa 0,0 l/m 6,3 km/h (2 Bft) S-SW 195 0 min 0,0 UV-I 0 W/m 8,8 C 10,0 C 11,3 km/h (2 Bft)
13.10.2022 20:36 10,1 C 9,4 C 92 % 1019,1 hPa 0,0 l/m 7,7 km/h (2 Bft) S-SW 207 0 min 0,0 UV-I 0 W/m 8,9 C 9,2 C 11,3 km/h (2 Bft)
13.10.2022 20:39 10,1 C 9,4 C 92 % 1019,2 hPa 0,0 l/m 7,8 km/h (2 Bft) S-SW 194 0 min 0,0 UV-I 0 W/m 8,9 C 9,1 C 11,3 km/h (2 Bft)
13.10.2022 20:42 10,1 C 9,4 C 92 % 1019,0 hPa 0,0 l/m 6,4 km/h (2 Bft) S-SO 167 0 min 0,0 UV-I 0 W/m 8,9 C 10,1 C 9,7 km/h (2 Bft)
13.10.2022 20:45 10,1 C 9,4 C 92 % 1019,0 hPa 0,0 l/m 7,4 km/h (2 Bft) SW 217 0 min 0,0 UV-I 0 W/m 8,9 C 9,4 C 14,5 km/h (3 Bft)
13.10.2022 20:48 10,1 C 9,4 C 92 % 1019,0 hPa 0,0 l/m 8,4 km/h (2 Bft) S-SW 203 0 min 0,0 UV-I 0 W/m 8,9 C 8,7 C 12,9 km/h (3 Bft)
13.10.2022 20:51 10,1 C 9,4 C 92 % 1019,0 hPa 0,0 l/m 7,4 km/h (2 Bft) S-SW 203 0 min 0,0 UV-I 0 W/m 8,9 C 9,4 C 12,9 km/h (3 Bft)
13.10.2022 20:54 10,2 C 9,4 C 92 % 1019,1 hPa 0,0 l/m 6,8 km/h (2 Bft) SW 229 0 min 0,0 UV-I 0 W/m 9,0 C 9,9 C 8,0 km/h (2 Bft)
13.10.2022 20:57 10,2 C 9,4 C 92 % 1019,2 hPa 0,0 l/m 5,9 km/h (2 Bft) SW 227 0 min 0,0 UV-I 0 W/m 9,0 C 10,2 C 9,7 km/h (2 Bft)
13.10.2022 21:00 10,2 C 9,4 C 92 % 1019,2 hPa 0,0 l/m 7,6 km/h (2 Bft) S-SW 204 0 min 0,0 UV-I 0 W/m 9,0 C 9,3 C 12,9 km/h (3 Bft)
13.10.2022 21:03 10,2 C 9,4 C 92 % 1019,2 hPa 0,0 l/m 6,3 km/h (2 Bft) S 186 0 min 0,0 UV-I 0 W/m 9,0 C 10,2 C 11,3 km/h (2 Bft)
13.10.2022 21:06 10,2 C 9,4 C 92 % 1019,3 hPa 0,0 l/m 6,5 km/h (2 Bft) SW 215 0 min 0,0 UV-I 0 W/m 9,0 C 10,2 C 11,3 km/h (2 Bft)
13.10.2022 21:09 10,2 C 9,4 C 92 % 1019,2 hPa 0,0 l/m 7,4 km/h (2 Bft) S-SW 198 0 min 0,0 UV-I 0 W/m 9,0 C 9,5 C 16,1 km/h (3 Bft)
13.10.2022 21:12 10,2 C 9,4 C 92 % 1019,1 hPa 0,0 l/m 9,5 km/h (2 Bft) S-SW 207 0 min 0,0 UV-I 0 W/m 9,0 C 8,1 C 16,1 km/h (3 Bft)
13.10.2022 21:15 10,2 C 9,4 C 92 % 1019,2 hPa 0,0 l/m 7,7 km/h (2 Bft) SW 218 0 min 0,0 UV-I 0 W/m 9,0 C 9,3 C 11,3 km/h (2 Bft)
13.10.2022 21:18 10,2 C 9,4 C 92 % 1019,1 hPa 0,0 l/m 7,4 km/h (2 Bft) SW 223 0 min 0,0 UV-I 0 W/m 9,0 C 9,5 C 14,5 km/h (3 Bft)
13.10.2022 21:21 10,2 C 9,4 C 92 % 1019,1 hPa 0,0 l/m 5,6 km/h (1 Bft) S-SW 202 0 min 0,0 UV-I 0 W/m 9,0 C 10,2 C 11,3 km/h (2 Bft)
13.10.2022 21:24 10,2 C 9,4 C 92 % 1019,1 hPa 0,0 l/m 5,7 km/h (1 Bft) S-SW 195 0 min 0,0 UV-I 0 W/m 9,0 C 10,2 C 9,7 km/h (2 Bft)
13.10.2022 21:27 10,2 C 9,4 C 92 % 1019,1 hPa 0,0 l/m 7,4 km/h (2 Bft) S 169 0 min 0,0 UV-I 0 W/m 9,0 C 9,5 C 12,9 km/h (3 Bft)
13.10.2022 21:30 10,3 C 9,4 C 92 % 1019,0 hPa 0,0 l/m 6,0 km/h (2 Bft) S 190 0 min 0,0 UV-I 0 W/m 9,1 C 10,3 C 9,7 km/h (2 Bft)
13.10.2022 21:33 10,3 C 9,4 C 92 % 1019,0 hPa 0,0 l/m 6,4 km/h (2 Bft) S-SW 202 0 min 0,0 UV-I 0 W/m 9,1 C 10,3 C 9,7 km/h (2 Bft)
13.10.2022 21:36 10,3 C 9,4 C 92 % 1019,1 hPa 0,0 l/m 7,4 km/h (2 Bft) S 191 0 min 0,0 UV-I 0 W/m 9,1 C 9,6 C 9,7 km/h (2 Bft)
13.10.2022 21:39 10,3 C 9,4 C 92 % 1019,0 hPa 0,0 l/m 5,7 km/h (1 Bft) S-SW 198 0 min 0,0 UV-I 0 W/m 9,1 C 10,3 C 11,3 km/h (2 Bft)
13.10.2022 21:42 10,3 C 9,4 C 92 % 1018,9 hPa 0,0 l/m 5,1 km/h (1 Bft) S 179 0 min 0,0 UV-I 0 W/m 9,1 C 10,3 C 8,0 km/h (2 Bft)
13.10.2022 21:45 10,3 C 9,4 C 92 % 1019,0 hPa 0,0 l/m 6,0 km/h (2 Bft) S-SW 194 0 min 0,0 UV-I 0 W/m 9,1 C 10,3 C 8,0 km/h (2 Bft)
13.10.2022 21:48 10,3 C 9,4 C 92 % 1019,0 hPa 0,0 l/m 6,0 km/h (2 Bft) S 184 0 min 0,0 UV-I 0 W/m 9,1 C 10,3 C 11,3 km/h (2 Bft)
13.10.2022 21:51 10,3 C 10,0 C 92 % 1019,1 hPa 0,0 l/m 5,8 km/h (2 Bft) S-SW 203 0 min 0,0 UV-I 0 W/m 9,1 C 10,3 C 9,7 km/h (2 Bft)
13.10.2022 21:54 10,3 C 10,0 C 92 % 1019,1 hPa 0,0 l/m 7,7 km/h (2 Bft) S-SW 213 0 min 0,0 UV-I 0 W/m 9,1 C 9,4 C 14,5 km/h (3 Bft)
13.10.2022 21:57 10,4 C 10,0 C 92 % 1019,0 hPa 0,0 l/m 9,3 km/h (2 Bft) S 186 0 min 0,0 UV-I 0 W/m 9,2 C 8,4 C 16,1 km/h (3 Bft)
13.10.2022 22:00 10,4 C 10,0 C 92 % 1019,1 hPa 0,0 l/m 9,2 km/h (2 Bft) S-SW 204 0 min 0,0 UV-I 0 W/m 9,2 C 8,5 C 12,9 km/h (3 Bft)
13.10.2022 22:03 10,4 C 10,0 C 92 % 1019,1 hPa 0,0 l/m 6,6 km/h (2 Bft) S 170 0 min 0,0 UV-I 0 W/m 9,2 C 10,3 C 14,5 km/h (3 Bft)
13.10.2022 22:06 10,4 C 10,0 C 92 % 1019,1 hPa 0,0 l/m 8,7 km/h (2 Bft) S-SW 203 0 min 0,0 UV-I 0 W/m 9,2 C 8,8 C 14,5 km/h (3 Bft)
13.10.2022 22:09 10,4 C 10,0 C 92 % 1019,0 hPa 0,0 l/m 8,7 km/h (2 Bft) S 182 0 min 0,0 UV-I 0 W/m 9,2 C 8,8 C 16,1 km/h (3 Bft)
13.10.2022 22:12 10,4 C 10,0 C 92 % 1019,1 hPa 0,0 l/m 8,1 km/h (2 Bft) S 178 0 min 0,0 UV-I 0 W/m 9,2 C 9,2 C 16,1 km/h (3 Bft)
13.10.2022 22:15 10,4 C 10,0 C 92 % 1019,1 hPa 0,0 l/m 7,1 km/h (2 Bft) S 187 0 min 0,0 UV-I 0 W/m 9,2 C 9,9 C 14,5 km/h (3 Bft)
13.10.2022 22:18 10,4 C 10,0 C 92 % 1019,1 hPa 0,0 l/m 5,7 km/h (1 Bft) S-SW 204 0 min 0,0 UV-I 0 W/m 9,2 C 10,4 C 11,3 km/h (2 Bft)
13.10.2022 22:21 10,4 C 10,0 C 92 % 1019,1 hPa 0,0 l/m 6,5 km/h (2 Bft) W-SW 242 0 min 0,0 UV-I 0 W/m 9,2 C 10,4 C 11,3 km/h (2 Bft)
13.10.2022 22:24 10,4 C 10,0 C 92 % 1019,1 hPa 0,0 l/m 7,8 km/h (2 Bft) S-SW 193 0 min 0,0 UV-I 0 W/m 9,2 C 9,4 C 11,3 km/h (2 Bft)
13.10.2022 22:27 10,4 C 10,0 C 92 % 1019,1 hPa 0,0 l/m 8,0 km/h (2 Bft) S-SW 200 0 min 0,0 UV-I 0 W/m 9,2 C 9,3 C 12,9 km/h (3 Bft)
13.10.2022 22:30 10,4 C 10,0 C 92 % 1019,1 hPa 0,0 l/m 8,1 km/h (2 Bft) S-SW 204 0 min 0,0 UV-I 0 W/m 9,2 C 9,2 C 12,9 km/h (3 Bft)
13.10.2022 22:33 10,4 C 10,0 C 92 % 1019,1 hPa 0,0 l/m 7,1 km/h (2 Bft) S 191 0 min 0,0 UV-I 0 W/m 9,2 C 9,9 C 11,3 km/h (2 Bft)
13.10.2022 22:36 10,4 C 10,0 C 92 % 1019,1 hPa 0,2 l/m 6,4 km/h (2 Bft) S-SW 196 0 min 0,0 UV-I 0 W/m 9,2 C 10,4 C 11,3 km/h (2 Bft)
13.10.2022 22:39 10,4 C 10,0 C 92 % 1019,1 hPa 0,0 l/m 8,9 km/h (2 Bft) S-SW 200 0 min 0,0 UV-I 0 W/m 9,2 C 8,7 C 12,9 km/h (3 Bft)
13.10.2022 22:42 10,5 C 10,0 C 93 % 1019,2 hPa 0,0 l/m 8,7 km/h (2 Bft) S-SW 210 0 min 0,0 UV-I 0 W/m 9,4 C 8,9 C 12,9 km/h (3 Bft)
13.10.2022 22:45 10,5 C 10,0 C 93 % 1019,1 hPa 0,0 l/m 6,9 km/h (2 Bft) S-SW 192 0 min 0,0 UV-I 0 W/m 9,4 C 10,2 C 9,7 km/h (2 Bft)
13.10.2022 22:48 10,5 C 10,0 C 93 % 1019,2 hPa 0,0 l/m 8,1 km/h (2 Bft) S 188 0 min 0,0 UV-I 0 W/m 9,4 C 9,3 C 12,9 km/h (3 Bft)
13.10.2022 22:51 10,5 C 10,0 C 93 % 1019,0 hPa 0,0 l/m 8,1 km/h (2 Bft) S 190 0 min 0,0 UV-I 0 W/m 9,4 C 9,3 C 16,1 km/h (3 Bft)
13.10.2022 22:54 10,6 C 10,0 C 93 % 1019,0 hPa 0,0 l/m 8,8 km/h (2 Bft) S-SW 201 0 min 0,0 UV-I 0 W/m 9,5 C 9,0 C 16,1 km/h (3 Bft)
13.10.2022 22:57 10,6 C 10,0 C 93 % 1019,0 hPa 0,0 l/m 8,5 km/h (2 Bft) S-SW 192 0 min 0,0 UV-I 0 W/m 9,5 C 9,2 C 12,9 km/h (3 Bft)
13.10.2022 23:00 10,6 C 10,0 C 93 % 1019,0 hPa 0,0 l/m 6,9 km/h (2 Bft) S 171 0 min 0,0 UV-I 0 W/m 9,5 C 10,3 C 11,3 km/h (2 Bft)
13.10.2022 23:03 10,6 C 10,0 C 93 % 1019,0 hPa 0,0 l/m 8,7 km/h (2 Bft) S-SW 210 0 min 0,0 UV-I 0 W/m 9,5 C 9,0 C 14,5 km/h (3 Bft)
13.10.2022 23:06 10,6 C 10,0 C 93 % 1019,0 hPa 0,0 l/m 8,2 km/h (2 Bft) S 180 0 min 0,0 UV-I 0 W/m 9,5 C 9,4 C 12,9 km/h (3 Bft)
13.10.2022 23:09 10,6 C 10,0 C 93 % 1019,0 hPa 0,0 l/m 7,6 km/h (2 Bft) W-SW 241 0 min 0,0 UV-I 0 W/m 9,5 C 9,8 C 11,3 km/h (2 Bft)
13.10.2022 23:12 10,6 C 10,0 C 93 % 1019,0 hPa 0,0 l/m 6,3 km/h (2 Bft) S 191 0 min 0,0 UV-I 0 W/m 9,5 C 10,6 C 11,3 km/h (2 Bft)
13.10.2022 23:15 10,6 C 10,0 C 93 % 1019,0 hPa 0,0 l/m 6,6 km/h (2 Bft) S 174 0 min 0,0 UV-I 0 W/m 9,5 C 10,5 C 11,3 km/h (2 Bft)
13.10.2022 23:18 10,6 C 10,0 C 93 % 1018,8 hPa 0,0 l/m 7,6 km/h (2 Bft) S-SW 195 0 min 0,0 UV-I 0 W/m 9,5 C 9,8 C 14,5 km/h (3 Bft)
13.10.2022 23:21 10,6 C 10,0 C 93 % 1018,9 hPa 0,0 l/m 6,3 km/h (2 Bft) S 182 0 min 0,0 UV-I 0 W/m 9,5 C 10,6 C 9,7 km/h (2 Bft)
13.10.2022 23:24 10,7 C 10,0 C 93 % 1018,9 hPa 0,0 l/m 5,7 km/h (1 Bft) S-SW 194 0 min 0,0 UV-I 0 W/m 9,6 C 10,7 C 11,3 km/h (2 Bft)
13.10.2022 23:27 10,7 C 10,0 C 93 % 1018,9 hPa 0,0 l/m 7,3 km/h (2 Bft) S 169 0 min 0,0 UV-I 0 W/m 9,6 C 10,1 C 14,5 km/h (3 Bft)
13.10.2022 23:30 10,7 C 10,0 C 93 % 1018,9 hPa 0,0 l/m 8,4 km/h (2 Bft) S-SW 202 0 min 0,0 UV-I 0 W/m 9,6 C 9,3 C 14,5 km/h (3 Bft)
13.10.2022 23:33 10,7 C 10,0 C 93 % 1018,9 hPa 0,0 l/m 9,5 km/h (2 Bft) S-SW 202 0 min 0,0 UV-I 0 W/m 9,6 C 8,7 C 16,1 km/h (3 Bft)
13.10.2022 23:36 10,7 C 10,0 C 93 % 1018,9 hPa 0,0 l/m 8,2 km/h (2 Bft) S 180 0 min 0,0 UV-I 0 W/m 9,6 C 9,5 C 12,9 km/h (3 Bft)
13.10.2022 23:39 10,7 C 10,0 C 93 % 1018,9 hPa 0,0 l/m 8,5 km/h (2 Bft) S-SW 198 0 min 0,0 UV-I 0 W/m 9,6 C 9,3 C 16,1 km/h (3 Bft)
13.10.2022 23:42 10,7 C 10,0 C 93 % 1018,9 hPa 0,0 l/m 10,1 km/h (2 Bft) S-SO 150 0 min 0,0 UV-I 0 W/m 9,6 C 8,3 C 17,7 km/h (3 Bft)
13.10.2022 23:45 10,7 C 10,0 C 93 % 1018,8 hPa 0,0 l/m 7,1 km/h (2 Bft) S-SW 196 0 min 0,0 UV-I 0 W/m 9,6 C 10,2 C 11,3 km/h (2 Bft)
13.10.2022 23:48 10,7 C 10,0 C 93 % 1018,8 hPa 0,0 l/m 9,8 km/h (2 Bft) S-SW 198 0 min 0,0 UV-I 0 W/m 9,6 C 8,5 C 16,1 km/h (3 Bft)
13.10.2022 23:51 10,8 C 10,0 C 93 % 1018,8 hPa 0,0 l/m 10,8 km/h (2 Bft) S 191 0 min 0,0 UV-I 0 W/m 9,7 C 8,0 C 17,7 km/h (3 Bft)
13.10.2022 23:54 10,8 C 10,0 C 93 % 1018,8 hPa 0,0 l/m 14,3 km/h (3 Bft) S 185 0 min 0,0 UV-I 0 W/m 9,7 C 6,4 C 22,5 km/h (4 Bft)
13.10.2022 23:57 10,7 C 10,0 C 93 % 1018,7 hPa 0,0 l/m 13,0 km/h (3 Bft) S 187 0 min 0,0 UV-I 0 W/m 9,6 C 6,8 C 19,3 km/h (3 Bft)
_ Min-Zeit 07:54 07:27 13:12 17:45 - 03:51 - - - - - 07:54 18:15 03:51
Minimum _ 4,6 C 3,9 C 82 % 1018,5 hPa - 0,0 km/h (0 Bft) - - - - - 3,7 C 3,8 C 0,0 km/h (0 Bft)
_ Max-Zeit 15:00 12:21 05:36 00:00 17:51 18:09 - - 00:00 12:18 12:21 12:24 16:30 15:03
Maximum _ 13,3 C 16,7 C 95 % 1024,7 hPa 0,2 l/m 19,6 km/h
S-SW (3 Bft)
- - 0 min 2,1 UV-I 391 W/m 11,1 C 13,2 C 30,6 km/h
S-SO (5 Bft)
Durchschnitt _ 9,0 C 8,7 C 91 % 1021,0 hPa #0,4 l/m 5,6 km/h (1 Bft) S-SW - #0 min. 0,9 UV-I 124 W/m 7,6 C 8,0 C 9,5 km/h (2 Bft)